K5BWX-2 Weather Reports


Display with metric or nautical units.
time (UTC)temp
F
wind
direction
speed
MPH
gust
MPH
rain 1hr
in
rain 24hr
in
rain mn
in
humidity
%
barometer
mb
20260902142926 82 281 2.0 4.0 0.00 0.00 0.00 66 1024.4
20260902142322 82 218 2.0 6.0 0.00 0.00 0.00 67 1024.4
20260902142308 82 218 2.0 6.0 0.00 0.00 0.00 67 1024.4
20260902140806 82 243 1.0 3.0 0.00 0.00 0.00 67 1024.3
20260902140750 82 244 1.0 3.0 0.00 0.00 0.00 67 1024.3
20260902140226 80 209 2.0 3.0 0.00 0.00 0.00 70 1024.0
20260902140220 80 209 2.0 3.0 0.00 0.00 0.00 69 1024.1
20260902140216 80 209 2.0 3.0 0.00 0.00 0.00 69 1024.1
20260902140202 82 206 1.0 4.0 0.00 0.00 0.00 67 1024.3
20260902140037 82 206 2.0 4.0 0.00 0.00 0.00 67 1024.3
20260902140030 80 204 1.0 3.0 0.00 0.00 0.00 69 1024.0
20260902140025 80 204 1.0 3.0 0.00 0.00 0.00 70 1024.0
20260902140020 80 204 1.0 3.0 0.00 0.00 0.00 70 1024.0
20260902140015 79 202 1.0 2.0 0.00 0.00 0.00 70 1024.1
20260902140009 79 202 1.0 2.0 0.00 0.00 0.00 70 1024.0
20260902140005 79 202 1.0 3.0 0.00 0.00 0.00 70 1024.0
20260902135934 81 206 2.0 4.0 0.00 0.00 0.00 68 1024.3
20260902135927 79 202 1.0 3.0 0.00 0.00 0.00 70 1024.0
20260902135923 79 202 1.0 3.0 0.00 0.00 0.00 69 1023.9
20260902135917 79 202 1.0 3.0 0.00 0.00 0.00 69 1023.9
20260902135911 79 202 1.0 3.0 0.00 0.00 0.00 69 1023.9
20260902135856 81 206 2.0 4.0 0.00 0.00 0.00 68 1024.2
20260902135843 81 206 2.0 4.0 0.00 0.00 0.00 68 1024.2
20260902135828 81 205 2.0 4.0 0.00 0.00 0.00 67 1024.2
20260902135456 79 202 1.0 3.0 0.00 0.00 0.00 69 1024.0
20260902135443 81 205 2.0 4.0 0.00 0.00 0.00 67 1024.3
20260902135418 81 249 1.0 4.0 0.00 0.00 0.00 67 1024.2
20260902135357 81 250 1.0 4.0 0.00 0.00 0.00 67 1024.2
20260902135339 81 198 1.0 4.0 0.00 0.00 0.00 67 1024.2
20260902135324 81 196 1.0 4.0 0.00 0.00 0.00 67 1024.2
20260902135302 81 196 1.0 4.0 0.00 0.00 0.00 67 1024.2
20260902135133 81 196 1.0 4.0 0.00 0.00 0.00 67 1024.2
20260902134922 81 207 0.0 4.0 0.00 0.00 0.00 68 1024.1
20260902134250 81 219 1.0 3.0 0.00 0.00 0.00 69 1024.2
20260902133708 81 221 1.0 4.0 0.00 0.00 0.00 69 1024.1
20260902133701 79 202 1.0 3.0 0.00 0.00 0.00 69 1023.9
20260902133657 79 202 0.0 2.0 0.00 0.00 0.00 69 1023.9
20260902133651 79 204 0.0 2.0 0.00 0.00 0.00 69 1023.8
20260902133646 79 204 0.0 2.0 0.00 0.00 0.00 69 1023.9
20260902133640 79 204 0.0 0.0 0.00 0.00 0.00 69 1023.8
20260902133625 81 221 1.0 4.0 0.00 0.00 0.00 69 1024.1
20260902133610 81 221 1.0 4.0 0.00 0.00 0.00 69 1024.2
20260902133558 81 221 1.0 4.0 0.00 0.00 0.00 69 1024.1
20260902133542 81 221 1.0 4.0 0.00 0.00 0.00 69 1024.1
20260902133235 81 221 1.0 4.0 0.00 0.00 0.00 69 1024.1
20260902133221 81 221 1.0 3.0 0.00 0.00 0.00 69 1024.1
20260902133208 81 221 1.0 3.0 0.00 0.00 0.00 69 1024.2
20260902133151 81 221 1.0 3.0 0.00 0.00 0.00 69 1024.1
20260902131828 80 217 2.0 4.0 0.00 0.00 0.00 69 1024.2
20260902131638 79 204 0.0 0.0 0.00 0.00 0.00 69 1023.7
20260902131634 79 204 0.0 2.0 0.00 0.00 0.00 69 1023.7
20260902131628 79 204 0.0 3.0 0.00 0.00 0.00 69 1023.6
20260902131622 79 204 0.0 3.0 0.00 0.00 0.00 69 1023.6
20260902131618 79 204 1.0 3.0 0.00 0.00 0.00 69 1023.7
20260902131612 79 204 1.0 3.0 0.00 0.00 0.00 69 1023.6
20260902131603 80 217 2.0 4.0 0.00 0.00 0.00 69 1024.2
20260902131545 80 217 2.0 4.0 0.00 0.00 0.00 69 1024.1
20260902131524 80 217 2.0 4.0 0.00 0.00 0.00 69 1024.2
20260902131510 80 217 2.0 4.0 0.00 0.00 0.00 69 1024.1
20260902131412 80 218 2.0 4.0 0.00 0.00 0.00 69 1024.1
20260902131357 80 215 2.0 4.0 0.00 0.00 0.00 69 1024.1
20260902131132 80 214 2.0 4.0 0.00 0.00 0.00 69 1024.1
20260902131117 80 216 2.0 3.0 0.00 0.00 0.00 69 1024.2
20260902125738 80 209 1.0 2.0 0.00 0.00 0.00 70 1024.1
20260902125718 80 209 1.0 3.0 0.00 0.00 0.00 70 1024.0
20260902125658 80 209 1.0 3.0 0.00 0.00 0.00 70 1024.1
20260902125556 80 209 1.0 3.0 0.00 0.00 0.00 70 1024.0
20260902125541 80 209 1.0 3.0 0.00 0.00 0.00 70 1024.0
20260902125112 80 209 2.0 3.0 0.00 0.00 0.00 70 1024.0
20260902125058 80 209 2.0 3.0 0.00 0.00 0.00 70 1024.0
20260902125044 80 209 2.0 3.0 0.00 0.00 0.00 70 1024.0
20260902124234 80 208 1.0 3.0 0.00 0.00 0.00 69 1024.0
20260902124214 80 209 1.0 3.0 0.00 0.00 0.00 69 1024.0
20260902123704 79 204 1.0 3.0 0.00 0.00 0.00 68 1023.6
20260902123659 79 204 1.0 3.0 0.00 0.00 0.00 68 1023.6
20260902123654 79 204 1.0 3.0 0.00 0.00 0.00 68 1023.6
20260902123648 79 204 1.0 3.0 0.00 0.00 0.00 68 1023.5
20260902123643 79 200 0.0 3.0 0.00 0.00 0.00 68 1023.6
20260902123639 79 200 0.0 3.0 0.00 0.00 0.00 67 1023.5
20260902123634 79 200 0.0 3.0 0.00 0.00 0.00 67 1023.5
20260902123623 80 203 1.0 3.0 0.00 0.00 0.00 70 1024.0
20260902123617 79 200 0.0 3.0 0.00 0.00 0.00 67 1023.6
20260902123611 79 200 0.0 2.0 0.00 0.00 0.00 67 1023.5
20260902123557 79 203 1.0 3.0 0.00 0.00 0.00 71 1024.1
20260902123321 79 202 1.0 2.0 0.00 0.00 0.00 71 1024.0
20260902123314 79 200 1.0 2.0 0.00 0.00 0.00 67 1023.5
20260902123309 79 200 1.0 3.0 0.00 0.00 0.00 67 1023.5
20260902123304 79 200 1.0 3.0 0.00 0.00 0.00 66 1023.4
20260902123300 79 200 1.0 3.0 0.00 0.00 0.00 66 1023.4
20260902123255 79 200 1.0 3.0 0.00 0.00 0.00 66 1023.2
20260902123249 79 200 1.0 3.0 0.00 0.00 0.00 66 1023.2
20260902123238 79 202 1.0 2.0 0.00 0.00 0.00 71 1024.0
20260902123222 79 202 1.0 2.0 0.00 0.00 0.00 70 1024.0
20260902123207 79 202 1.0 2.0 0.00 0.00 0.00 70 1024.0
20260902122734 79 200 1.0 3.0 0.00 0.00 0.00 66 1023.2
20260902122720 79 202 1.0 3.0 0.00 0.00 0.00 70 1024.0
20260902122703 79 200 0.0 0.0 0.00 0.00 0.00 66 1023.0
20260902122656 78 200 0.0 0.0 0.00 0.00 0.00 66 1023.1
20260902122650 78 200 0.0 0.0 0.00 0.00 0.00 66 1023.2
20260902122646 78 200 0.0 0.0 0.00 0.00 0.00 66 1023.1
20260902122639 79 200 0.0 0.0 0.00 0.00 0.00 67 1023.1
20260902122634 78 200 0.0 0.0 0.00 0.00 0.00 68 1023.0
20260902122629 78 200 0.0 0.0 0.00 0.00 0.00 68 1022.9
20260902122617 79 202 1.0 3.0 0.00 0.00 0.00 70 1024.0
20260902122525 79 202 1.0 3.0 0.00 0.00 0.00 70 1024.0
20260902122511 79 202 1.0 3.0 0.00 0.00 0.00 70 1024.0
20260902122229 78 200 0.0 0.0 0.00 0.00 0.00 68 1022.9
20260902122215 79 202 1.0 3.0 0.00 0.00 0.00 70 1023.9
20260902122159 79 202 1.0 3.0 0.00 0.00 0.00 70 1024.0
20260902122143 79 202 1.0 3.0 0.00 0.00 0.00 70 1024.0
20260902122129 79 202 1.0 3.0 0.00 0.00 0.00 70 1023.9
20260902121236 78 200 0.0 0.0 0.00 0.00 0.00 68 1023.0
20260902121232 78 201 0.0 0.0 0.00 0.00 0.00 68 1022.9
20260902121227 78 201 0.0 0.0 0.00 0.00 0.00 68 1022.9
20260902121214 79 202 1.0 3.0 0.00 0.00 0.00 69 1023.9
20260902121202 79 202 0.0 3.0 0.00 0.00 0.00 69 1024.0
20260902120926 79 204 0.0 2.0 0.00 0.00 0.00 69 1023.8
20260902120911 79 204 0.0 2.0 0.00 0.00 0.00 69 1023.9
20260902120845 79 204 0.0 2.0 0.00 0.00 0.00 69 1023.8
20260902120130 78 201 0.0 0.0 0.00 0.00 0.00 68 1022.8
20260902120112 79 204 0.0 0.0 0.00 0.00 0.00 69 1023.8
20260902115955 78 201 0.0 0.0 0.00 0.00 0.00 69 1022.9
20260902115944 79 204 0.0 0.0 0.00 0.00 0.00 69 1023.8
20260902115928 79 204 0.0 1.0 0.00 0.00 0.00 69 1023.8
20260902115910 79 204 0.0 2.0 0.00 0.00 0.00 69 1023.7
20260902115855 79 204 0.0 2.0 0.00 0.00 0.00 69 1023.7
20260902114915 78 201 0.0 0.0 0.00 0.00 0.00 69 1023.0
20260902114856 79 204 1.0 3.0 0.00 0.00 0.00 68 1023.6
20260902114729 79 204 1.0 3.0 0.00 0.00 0.00 68 1023.6
20260902114706 78 201 0.0 0.0 0.00 0.00 0.00 69 1022.9
20260902114700 78 201 0.0 0.0 0.00 0.00 0.00 69 1022.9
20260902114647 79 204 1.0 3.0 0.00 0.00 0.00 68 1023.6
20260902114501 79 201 0.0 2.0 0.00 0.00 0.00 68 1023.6
20260902114339 79 200 0.0 2.0 0.00 0.00 0.00 68 1023.6
20260902114157 79 200 0.0 3.0 0.00 0.00 0.00 67 1023.5
20260902114024 79 200 0.0 3.0 0.00 0.00 0.00 67 1023.5
20260902113628 78 194 0.0 0.0 0.00 0.00 0.00 69 1022.8
20260902113622 78 194 0.0 0.0 0.00 0.00 0.00 69 1022.9
20260902113616 78 194 0.0 0.0 0.00 0.00 0.00 67 1022.9
20260902113604 79 200 0.0 3.0 0.00 0.00 0.00 67 1023.6
20260902113558 78 194 0.0 0.0 0.00 0.00 0.00 66 1022.8
20260902113553 78 194 0.0 0.0 0.00 0.00 0.00 66 1022.9
20260902113546 78 194 0.0 0.0 0.00 0.00 0.00 66 1022.8
20260902113542 78 194 0.0 0.0 0.00 0.00 0.00 66 1022.9
20260902113537 78 194 0.0 0.0 0.00 0.00 0.00 66 1022.8
20260902113531 78 194 0.0 0.0 0.00 0.00 0.00 67 1022.8
20260902113523 79 200 0.0 3.0 0.00 0.00 0.00 67 1023.6
20260902113458 79 200 0.0 3.0 0.00 0.00 0.00 67 1023.5
20260902113338 78 194 0.0 0.0 0.00 0.00 0.00 67 1022.7
20260902113333 78 194 0.0 0.0 0.00 0.00 0.00 68 1022.7
20260902113329 78 194 0.0 0.0 0.00 0.00 0.00 68 1022.7
20260902113323 78 194 0.0 0.0 0.00 0.00 0.00 68 1022.8
20260902113319 78 194 0.0 0.0 0.00 0.00 0.00 68 1022.8
20260902113314 78 194 0.0 0.0 0.00 0.00 0.00 68 1022.7
20260902113303 79 200 0.0 3.0 0.00 0.00 0.00 67 1023.5
20260902113242 79 200 0.0 2.0 0.00 0.00 0.00 67 1023.5
20260902113126 78 194 0.0 0.0 0.00 0.00 0.00 69 1022.7
20260902113120 78 194 0.0 0.0 0.00 0.00 0.00 69 1022.7
20260902113116 78 194 0.0 0.0 0.00 0.00 0.00 69 1022.6
20260902113111 78 194 0.0 0.0 0.00 0.00 0.00 69 1022.6
20260902113105 78 194 0.0 0.0 0.00 0.00 0.00 69 1022.6
20260902113100 78 194 0.0 0.0 0.00 0.00 0.00 68 1022.7
20260902113051 79 200 0.0 2.0 0.00 0.00 0.00 67 1023.4
20260902113044 78 194 0.0 0.0 0.00 0.00 0.00 68 1022.7
20260902113038 78 194 0.0 0.0 0.00 0.00 0.00 68 1022.6
20260902113033 78 194 0.0 0.0 0.00 0.00 0.00 68 1022.6
20260902113026 78 194 0.0 0.0 0.00 0.00 0.00 68 1022.7
20260902113022 78 194 0.0 0.0 0.00 0.00 0.00 68 1022.6
20260902113016 78 194 0.0 0.0 0.00 0.00 0.00 68 1022.6
20260902113003 79 200 0.0 2.0 0.00 0.00 0.00 67 1023.5
20260902112941 79 200 0.0 2.0 0.00 0.00 0.00 67 1023.5
20260902112825 78 193 0.0 0.0 0.00 0.00 0.00 66 1022.5
20260902112821 78 193 0.0 0.0 0.00 0.00 0.00 67 1022.6
20260902112816 78 193 0.0 0.0 0.00 0.00 0.00 67 1022.5
20260902112802 79 200 0.0 2.0 0.00 0.00 0.00 67 1023.6
20260902112748 79 200 0.0 2.0 0.00 0.00 0.00 67 1023.5
20260902112730 79 200 0.0 2.0 0.00 0.00 0.00 67 1023.5
20260902112233 79 200 1.0 3.0 0.00 0.00 0.00 67 1023.5
20260902112215 79 200 1.0 3.0 0.00 0.00 0.00 67 1023.5
20260902112200 79 200 1.0 3.0 0.00 0.00 0.00 67 1023.4
20260902112147 79 200 1.0 3.0 0.00 0.00 0.00 67 1023.4
20260902111640 79 200 1.0 3.0 0.00 0.00 0.00 66 1023.2
20260902111048 78 193 0.0 0.0 0.00 0.00 0.00 67 1022.5
20260902111043 78 193 0.0 0.0 0.00 0.00 0.00 67 1022.6
20260902111038 78 193 0.0 0.0 0.00 0.00 0.00 67 1022.5
20260902111026 79 200 1.0 3.0 0.00 0.00 0.00 66 1023.2
20260902111017 78 193 0.0 0.0 0.00 0.00 0.00 67 1022.6
20260902111012 78 193 0.0 0.0 0.00 0.00 0.00 67 1022.6
20260902111006 78 193 0.0 0.0 0.00 0.00 0.00 67 1022.5
20260902111002 78 193 0.0 0.0 0.00 0.00 0.00 67 1022.5
20260902110957 78 193 0.0 0.0 0.00 0.00 0.00 66 1022.5
20260902110948 79 200 0.0 3.0 0.00 0.00 0.00 66 1023.1
20260902110928 79 200 0.0 3.0 0.00 0.00 0.00 66 1023.2
20260902110812 78 193 0.0 0.0 0.00 0.00 0.00 65 1022.5
20260902110806 78 193 0.0 0.0 0.00 0.00 0.00 65 1022.6
20260902110751 79 200 0.0 2.0 0.00 0.00 0.00 66 1023.1
20260902110626 78 200 0.0 0.0 0.00 0.00 0.00 66 1023.1
20260902110619 78 191 0.0 0.0 0.00 0.00 0.00 64 1022.5
20260902110604 78 200 0.0 0.0 0.00 0.00 0.00 66 1023.1
20260902110546 78 200 0.0 0.0 0.00 0.00 0.00 66 1023.1
20260902105951 78 191 0.0 0.0 0.00 0.00 0.00 64 1022.4
20260902105946 78 191 0.0 0.0 0.00 0.00 0.00 64 1022.5
20260902105941 78 191 0.0 0.0 0.00 0.00 0.00 65 1022.4
20260902105932 78 200 0.0 0.0 0.00 0.00 0.00 66 1023.1
20260902105914 79 200 0.0 0.0 0.00 0.00 0.00 66 1023.1
20260902105906 79 200 0.0 0.0 0.00 0.00 0.00 66 1023.1
20260902105844 79 200 0.0 0.0 0.00 0.00 0.00 67 1023.1
20260902105601 78 200 0.0 0.0 0.00 0.00 0.00 67 1023.0
20260902105542 78 200 0.0 0.0 0.00 0.00 0.00 68 1023.0
20260902105520 78 200 0.0 0.0 0.00 0.00 0.00 67 1023.0
20260902105057 78 200 0.0 0.0 0.00 0.00 0.00 68 1023.0
20260902105040 78 200 0.0 0.0 0.00 0.00 0.00 68 1023.0
20260902104954 78 200 0.0 0.0 0.00 0.00 0.00 68 1022.9
20260902103905 78 201 0.0 0.0 0.00 0.00 0.00 68 1022.9
20260902103851 78 201 0.0 0.0 0.00 0.00 0.00 68 1022.9
20260902103837 78 201 0.0 0.0 0.00 0.00 0.00 68 1022.9
20260902103819 78 201 0.0 0.0 0.00 0.00 0.00 68 1022.9
20260902103139 78 191 0.0 0.0 0.00 0.00 0.00 64 1022.4
20260902103133 78 191 0.0 0.0 0.00 0.00 0.00 64 1022.4
20260902103127 78 191 0.0 0.0 0.00 0.00 0.00 64 1022.4
20260902103120 78 191 0.0 0.0 0.00 0.00 0.00 62 1022.4
20260902103109 78 201 0.0 0.0 0.00 0.00 0.00 69 1022.9
20260902102931 78 191 0.0 0.0 0.00 0.00 0.00 62 1022.3
20260902102926 78 191 0.0 0.0 0.00 0.00 0.00 62 1022.3
20260902102908 78 201 0.0 0.0 0.00 0.00 0.00 68 1022.9
20260902102841 78 201 0.0 0.0 0.00 0.00 0.00 69 1023.0
20260902102808 78 201 0.0 0.0 0.00 0.00 0.00 69 1022.9
20260902102747 78 201 0.0 0.0 0.00 0.00 0.00 68 1022.9
20260902102442 78 201 0.0 0.0 0.00 0.00 0.00 69 1022.9
20260902102023 78 191 0.0 0.0 0.00 0.00 0.00 62 1022.3
20260902102015 78 194 0.0 0.0 0.00 0.00 0.00 69 1022.9
20260902101946 78 194 0.0 0.0 0.00 0.00 0.00 69 1022.9
20260902101912 78 194 0.0 0.0 0.00 0.00 0.00 68 1022.9
20260902101855 78 194 0.0 0.0 0.00 0.00 0.00 68 1022.9
20260902101826 78 194 0.0 0.0 0.00 0.00 0.00 67 1022.9
20260902101757 78 194 0.0 0.0 0.00 0.00 0.00 67 1022.9
20260902101147 78 194 0.0 0.0 0.00 0.00 0.00 66 1022.8
20260902101058 78 194 0.0 0.0 0.00 0.00 0.00 66 1022.8
20260902100607 78 194 0.0 0.0 0.00 0.00 0.00 67 1022.7
20260902100554 78 194 0.0 0.0 0.00 0.00 0.00 67 1022.7
20260902100513 78 194 0.0 0.0 0.00 0.00 0.00 68 1022.7
20260902100457 78 194 0.0 0.0 0.00 0.00 0.00 68 1022.8
20260902100431 78 194 0.0 0.0 0.00 0.00 0.00 68 1022.7
20260902100353 78 194 0.0 0.0 0.00 0.00 0.00 68 1022.7
20260902094906 78 194 0.0 0.0 0.00 0.00 0.00 68 1022.7
20260902094229 78 194 0.0 0.0 0.00 0.00 0.00 68 1022.6
20260902094028 78 194 0.0 0.0 0.00 0.00 0.00 68 1022.6
20260902094007 78 194 0.0 0.0 0.00 0.00 0.00 68 1022.6
20260902093754 78 191 0.0 0.0 0.00 0.00 0.00 62 1022.3
20260902093749 78 191 0.0 0.0 0.00 0.00 0.00 62 1022.3
20260902093742 78 191 0.0 0.0 0.00 0.00 0.00 62 1022.2
20260902093738 78 191 0.0 0.0 0.00 0.00 0.00 63 1022.3
20260902093733 78 191 0.0 0.0 0.00 0.00 0.00 64 1022.3
20260902093727 78 191 0.0 0.0 0.00 0.00 0.00 64 1022.3
20260902093720 78 191 0.0 0.0 0.00 0.00 0.00 64 1022.3
20260902093708 78 194 0.0 0.0 0.00 0.00 0.00 68 1022.6
20260902093650 78 194 0.0 0.0 0.00 0.00 0.00 68 1022.6
20260902093415 78 194 0.0 0.0 0.00 0.00 0.00 67 1022.6
20260902093355 78 194 0.0 0.0 0.00 0.00 0.00 67 1022.6
20260902093228 78 194 0.0 0.0 0.00 0.00 0.00 66 1022.5
20260902093212 78 193 0.0 0.0 0.00 0.00 0.00 66 1022.5
20260902093156 78 193 0.0 0.0 0.00 0.00 0.00 66 1022.6
20260902092852 78 193 0.0 0.0 0.00 0.00 0.00 66 1022.5
20260902092835 78 193 0.0 0.0 0.00 0.00 0.00 66 1022.5
20260902092819 78 193 0.0 0.0 0.00 0.00 0.00 66 1022.6
20260902092648 78 193 0.0 0.0 0.00 0.00 0.00 67 1022.5
20260902090005 78 191 0.0 0.0 0.00 0.00 0.00 64 1022.4
20260902085727 78 191 0.0 0.0 0.00 0.00 0.00 64 1022.3
20260902085717 78 191 0.0 0.0 0.00 0.00 0.00 64 1022.3
20260902085655 78 191 0.0 0.0 0.00 0.00 0.00 64 1022.3
20260902085640 78 191 0.0 0.0 0.00 0.00 0.00 64 1022.4
20260902085625 78 191 0.0 0.0 0.00 0.00 0.00 63 1022.3
20260902085612 78 191 0.0 0.0 0.00 0.00 0.00 63 1022.3
20260902085556 78 191 0.0 0.0 0.00 0.00 0.00 63 1022.4
20260902085539 78 191 0.0 0.0 0.00 0.00 0.00 62 1022.3
20260902085309 78 191 0.0 0.0 0.00 0.00 0.00 62 1022.3
20260902084401 78 191 0.0 0.0 0.00 0.00 0.00 62 1022.3
20260902084319 78 191 0.0 0.0 0.00 0.00 0.00 62 1022.3
20260902083959 78 191 0.0 0.0 0.00 0.00 0.00 63 1022.2
20260902083810 78 191 0.0 0.0 0.00 0.00 0.00 64 1022.2
20260902083755 78 191 0.0 0.0 0.00 0.00 0.00 64 1022.2
20260902083742 78 191 0.0 0.0 0.00 0.00 0.00 64 1022.3
20260902082516 78 185 1.0 2.0 0.00 0.00 0.00 68 1022.1
20260902082511 78 191 0.0 2.0 0.00 0.00 0.00 65 1022.2
20260902082504 78 191 1.0 2.0 0.00 0.00 0.00 66 1022.1
20260902082459 78 191 1.0 2.0 0.00 0.00 0.00 66 1022.1
20260902082453 78 191 1.0 2.0 0.00 0.00 0.00 66 1022.2
20260902082448 78 190 1.0 2.0 0.00 0.00 0.00 66 1022.1
20260902082439 78 191 0.0 0.0 0.00 0.00 0.00 64 1022.2
20260902082418 78 191 0.0 1.0 0.00 0.00 0.00 64 1022.3
20260902082308 79 190 1.0 2.0 0.00 0.00 0.00 66 1022.2
20260902082252 78 191 0.0 2.0 0.00 0.00 0.00 64 1022.2
20260902082232 78 191 0.0 2.0 0.00 0.00 0.00 65 1022.2
20260902082035 78 191 0.0 2.0 0.00 0.00 0.00 66 1022.2
20260902081924 79 190 1.0 2.0 0.00 0.00 0.00 64 1022.2
20260902081920 79 190 1.0 3.0 0.00 0.00 0.00 63 1022.1
20260902081914 79 190 1.0 3.0 0.00 0.00 0.00 62 1022.1
20260902081910 79 190 1.0 3.0 0.00 0.00 0.00 61 1022.1
20260902081906 79 190 1.0 2.0 0.00 0.00 0.00 61 1022.2
20260902081902 79 190 1.0 3.0 0.00 0.00 0.00 62 1022.2
20260902081856 79 190 1.0 3.0 0.00 0.00 0.00 62 1022.2
20260902081844 78 191 0.0 2.0 0.00 0.00 0.00 66 1022.2
20260902081828 78 191 0.0 2.0 0.00 0.00 0.00 66 1022.2
20260902081812 78 191 1.0 2.0 0.00 0.00 0.00 66 1022.2
20260902081755 78 191 1.0 2.0 0.00 0.00 0.00 66 1022.2
20260902080938 79 190 1.0 3.0 0.00 0.00 0.00 62 1022.1
20260902080926 78 190 1.0 2.0 0.00 0.00 0.00 66 1022.1
20260902080915 79 190 1.0 3.0 0.00 0.00 0.00 62 1022.2
20260902080901 78 190 1.0 2.0 0.00 0.00 0.00 66 1022.1
20260902080842 78 190 1.0 2.0 0.00 0.00 0.00 66 1022.1
20260902080828 79 190 1.0 2.0 0.00 0.00 0.00 66 1022.1
20260902080345 79 190 1.0 3.0 0.00 0.00 0.00 63 1022.2
20260902080339 79 188 1.0 3.0 0.00 0.00 0.00 62 1022.1
20260902080330 79 190 1.0 2.0 0.00 0.00 0.00 64 1022.2
20260902075939 79 190 1.0 3.0 0.00 0.00 0.00 61 1022.1
20260902075813 79 190 1.0 3.0 0.00 0.00 0.00 61 1022.2
20260902075806 79 185 0.0 2.0 0.00 0.00 0.00 62 1022.1
20260902075751 79 190 1.0 3.0 0.00 0.00 0.00 61 1022.2
20260902075712 79 190 1.0 3.0 0.00 0.00 0.00 61 1022.1
20260902075658 79 190 1.0 3.0 0.00 0.00 0.00 61 1022.1
20260902075644 79 190 1.0 3.0 0.00 0.00 0.00 61 1022.2
20260902075626 79 190 1.0 3.0 0.00 0.00 0.00 61 1022.2
20260902075211 79 190 1.0 2.0 0.00 0.00 0.00 61 1022.1
20260902075159 79 190 1.0 2.0 0.00 0.00 0.00 61 1022.1
20260902075148 79 190 1.0 3.0 0.00 0.00 0.00 61 1022.2
20260902074628 79 190 1.0 3.0 0.00 0.00 0.00 62 1022.2
20260902074611 79 190 1.0 3.0 0.00 0.00 0.00 62 1022.1
20260902073606 79 188 1.0 3.0 0.00 0.00 0.00 62 1022.2
20260902073550 79 188 1.0 3.0 0.00 0.00 0.00 61 1022.1
20260902073437 79 185 0.0 2.0 0.00 0.00 0.00 62 1022.2
20260902073432 79 185 0.0 2.0 0.00 0.00 0.00 62 1022.1
20260902073427 79 185 0.0 1.0 0.00 0.00 0.00 63 1022.1
20260902073421 79 185 0.0 0.0 0.00 0.00 0.00 67 1022.1
20260902073415 79 185 0.0 0.0 0.00 0.00 0.00 67 1022.0
20260902073410 79 185 0.0 0.0 0.00 0.00 0.00 67 1022.1
20260902073358 79 188 1.0 3.0 0.00 0.00 0.00 61 1022.1
20260902073351 79 185 0.0 0.0 0.00 0.00 0.00 67 1021.9
20260902073346 79 185 0.0 0.0 0.00 0.00 0.00 67 1022.0
20260902073341 79 185 0.0 0.0 0.00 0.00 0.00 68 1022.0
20260902073336 79 185 0.0 0.0 0.00 0.00 0.00 68 1022.0
20260902073330 79 185 0.0 0.0 0.00 0.00 0.00 68 1022.1
20260902073325 79 185 0.0 0.0 0.00 0.00 0.00 68 1022.1
20260902073311 79 188 1.0 3.0 0.00 0.00 0.00 61 1022.2
20260902073255 79 188 1.0 3.0 0.00 0.00 0.00 61 1022.1
20260902073243 79 187 1.0 3.0 0.00 0.00 0.00 61 1022.2
20260902072600 79 185 0.0 0.0 0.00 0.00 0.00 64 1022.1
20260902072447 78 185 0.0 2.0 0.00 0.00 0.00 68 1022.1
20260902072441 78 185 1.0 2.0 0.00 0.00 0.00 68 1022.1
20260902072426 79 185 0.0 0.0 0.00 0.00 0.00 65 1022.1
20260902072408 79 185 0.0 0.0 0.00 0.00 0.00 65 1022.1
20260902072351 79 185 0.0 0.0 0.00 0.00 0.00 66 1022.0
20260902072336 79 185 0.0 0.0 0.00 0.00 0.00 66 1022.1
20260902072322 79 185 0.0 0.0 0.00 0.00 0.00 66 1022.1
20260902071710 79 185 0.0 0.0 0.00 0.00 0.00 67 1022.0
20260902071045 79 185 0.0 0.0 0.00 0.00 0.00 68 1022.0
20260902070838 79 185 0.0 0.0 0.00 0.00 0.00 68 1022.1
20260902070706 78 185 1.0 2.0 0.00 0.00 0.00 68 1022.1
20260902070653 79 185 0.0 0.0 0.00 0.00 0.00 68 1022.1
20260902070645 78 185 0.0 2.0 0.00 0.00 0.00 69 1022.1
20260902070638 78 185 1.0 2.0 0.00 0.00 0.00 68 1022.1
20260902070633 78 185 1.0 2.0 0.00 0.00 0.00 68 1022.1
20260902070626 78 185 1.0 2.0 0.00 0.00 0.00 69 1022.2
20260902070620 78 185 1.0 2.0 0.00 0.00 0.00 69 1022.2
20260902070615 78 185 0.0 2.0 0.00 0.00 0.00 69 1022.2
20260902070609 78 185 0.0 1.0 0.00 0.00 0.00 69 1022.1
20260902070604 78 185 0.0 1.0 0.00 0.00 0.00 69 1022.1
20260902070553 79 185 0.0 0.0 0.00 0.00 0.00 68 1022.1
20260902070546 78 185 0.0 1.0 0.00 0.00 0.00 69 1022.2
20260902070542 79 185 0.0 1.0 0.00 0.00 0.00 69 1022.2
20260902070537 79 185 0.0 1.0 0.00 0.00 0.00 68 1022.2
20260902070533 79 185 0.0 1.0 0.00 0.00 0.00 68 1022.3
20260902070526 79 185 0.0 2.0 0.00 0.00 0.00 68 1022.2
20260902070522 79 185 0.0 2.0 0.00 0.00 0.00 68 1022.2
20260902070507 79 185 0.0 0.0 0.00 0.00 0.00 68 1022.1
20260902070454 79 185 0.0 0.0 0.00 0.00 0.00 68 1022.1
20260902070439 79 185 0.0 1.0 0.00 0.00 0.00 68 1022.1
20260902070421 79 185 0.0 2.0 0.00 0.00 0.00 68 1022.1
20260902070258 78 185 0.0 2.0 0.00 0.00 0.00 68 1022.1
20260902065611 78 185 1.0 2.0 0.00 0.00 0.00 68 1022.1
20260902065553 78 185 1.0 2.0 0.00 0.00 0.00 68 1022.1
20260902065539 78 185 1.0 2.0 0.00 0.00 0.00 68 1022.0
20260902065406 78 185 0.0 2.0 0.00 0.00 0.00 68 1022.1
20260902065158 78 185 0.0 2.0 0.00 0.00 0.00 69 1022.1
20260902065130 78 185 1.0 2.0 0.00 0.00 0.00 69 1022.1
20260902064928 78 185 1.0 2.0 0.00 0.00 0.00 68 1022.2
20260902064615 78 185 1.0 2.0 0.00 0.00 0.00 68 1022.1
20260902064333 78 185 1.0 2.0 0.00 0.00 0.00 69 1022.2
20260902064251 78 185 1.0 2.0 0.00 0.00 0.00 69 1022.2
20260902064204 78 185 1.0 2.0 0.00 0.00 0.00 69 1022.2
20260902064147 78 185 1.0 2.0 0.00 0.00 0.00 69 1022.2
20260902063043 79 185 0.0 2.0 0.00 0.00 0.00 68 1022.3
20260902063038 79 185 0.0 0.0 0.00 0.00 0.00 68 1022.2
20260902063031 80 185 0.0 1.0 0.00 0.00 0.00 68 1022.3
20260902063018 79 185 0.0 2.0 0.00 0.00 0.00 68 1022.3
20260902062929 80 185 0.0 2.0 0.00 0.00 0.00 67 1022.3
20260902062925 80 185 0.0 3.0 0.00 0.00 0.00 67 1022.3
20260902062912 79 185 0.0 2.0 0.00 0.00 0.00 68 1022.2
20260902062859 79 185 0.0 2.0 0.00 0.00 0.00 68 1022.2
20260902062841 79 185 0.0 2.0 0.00 0.00 0.00 68 1022.2
20260902062439 80 185 0.0 3.0 0.00 0.00 0.00 67 1022.3
20260902062433 80 185 0.0 3.0 0.00 0.00 0.00 67 1022.3
20260902062427 80 185 0.0 3.0 0.00 0.00 0.00 67 1022.3
20260902062423 80 185 1.0 3.0 0.00 0.00 0.00 67 1022.4
20260902062417 81 186 1.0 4.0 0.00 0.00 0.00 66 1022.4
20260902062413 81 204 1.0 4.0 0.00 0.00 0.00 66 1022.4
20260902062408 81 204 1.0 4.0 0.00 0.00 0.00 65 1022.4
20260902062402 81 204 1.0 4.0 0.00 0.00 0.00 65 1022.4
20260902062357 81 204 1.0 4.0 0.00 0.00 0.00 65 1022.4
20260902062348 79 185 0.0 2.0 0.00 0.00 0.00 68 1022.3
20260902062341 81 204 1.0 4.0 0.00 0.00 0.00 65 1022.4
20260902062335 81 204 1.0 4.0 0.00 0.00 0.00 65 1022.4
20260902062322 79 185 0.0 2.0 0.00 0.00 0.00 68 1022.3
20260902062307 79 185 0.0 2.0 0.00 0.00 0.00 68 1022.2
20260902061959 79 185 0.0 0.0 0.00 0.00 0.00 68 1022.2
20260902061939 80 185 0.0 1.0 0.00 0.00 0.00 68 1022.2
20260902061812 80 185 0.0 1.0 0.00 0.00 0.00 68 1022.3
20260902061804 80 185 0.0 2.0 0.00 0.00 0.00 67 1022.4
20260902061749 80 185 0.0 2.0 0.00 0.00 0.00 67 1022.3
20260902061726 80 185 0.0 2.0 0.00 0.00 0.00 67 1022.4
20260902061511 80 185 0.0 3.0 0.00 0.00 0.00 67 1022.4
20260902060655 80 185 1.0 3.0 0.00 0.00 0.00 66 1022.4
20260902060635 80 185 1.0 3.0 0.00 0.00 0.00 66 1022.4
20260902060622 80 185 1.0 4.0 0.00 0.00 0.00 66 1022.4
20260902060053 81 204 1.0 4.0 0.00 0.00 0.00 65 1022.4
20260902055411 81 210 1.0 4.0 0.00 0.00 0.00 65 1022.4
20260902055312 81 162 1.0 4.0 0.00 0.00 0.00 65 1022.4
20260902055211 81 162 0.0 4.0 0.00 0.00 0.00 65 1022.5
20260902055151 81 159 0.0 3.0 0.00 0.00 0.00 65 1022.4
20260902055146 81 159 0.0 3.0 0.00 0.00 0.00 65 1022.5
20260902055131 81 161 0.0 3.0 0.00 0.00 0.00 65 1022.5
20260902055113 81 159 0.0 3.0 0.00 0.00 0.00 65 1022.4
20260902054908 81 159 0.0 3.0 0.00 0.00 0.00 65 1022.5
20260902054626 81 126 0.0 0.0 0.00 0.00 0.00 65 1022.5
20260902054621 81 126 0.0 0.0 0.00 0.00 0.00 65 1022.5
20260902054610 81 159 0.0 3.0 0.00 0.00 0.00 65 1022.5
20260902054604 81 126 0.0 0.0 0.00 0.00 0.00 65 1022.5
20260902054558 81 126 0.0 0.0 0.00 0.00 0.00 65 1022.5
20260902054554 81 126 0.0 0.0 0.00 0.00 0.00 65 1022.5
20260902054548 81 126 0.0 0.0 0.00 0.00 0.00 65 1022.4
20260902054543 81 126 0.0 0.0 0.00 0.00 0.00 65 1022.4
20260902054539 81 125 0.0 0.0 0.00 0.00 0.00 65 1022.4
20260902054525 81 132 0.0 3.0 0.00 0.00 0.00 65 1022.5
20260902054506 81 131 0.0 2.0 0.00 0.00 0.00 65 1022.5
20260902054445 81 130 0.0 0.0 0.00 0.00 0.00 65 1022.5
20260902054433 81 130 0.0 0.0 0.00 0.00 0.00 65 1022.5
20260902054413 81 130 0.0 0.0 0.00 0.00 0.00 65 1022.4
20260902054346 81 126 0.0 0.0 0.00 0.00 0.00 65 1022.5
20260902053245 81 126 0.0 0.0 0.00 0.00 0.00 65 1022.5
20260902053003 81 125 0.0 0.0 0.00 0.00 0.00 65 1022.4
20260902052952 81 125 0.0 0.0 0.00 0.00 0.00 65 1022.5
20260902052944 81 125 0.0 0.0 0.00 0.00 0.00 65 1022.5
20260902052938 81 125 0.0 0.0 0.00 0.00 0.00 65 1022.5
20260902052933 81 125 0.0 0.0 0.00 0.00 0.00 65 1022.5
20260902052921 81 126 0.0 0.0 0.00 0.00 0.00 65 1022.5
20260902052744 81 125 0.0 0.0 0.00 0.00 0.00 65 1022.5
20260902052724 81 125 0.0 0.0 0.00 0.00 0.00 65 1022.5
20260902052138 81 125 0.0 0.0 0.00 0.00 0.00 65 1022.5
20260902052036 81 125 0.0 0.0 0.00 0.00 0.00 65 1022.5
20260902051936 81 125 0.0 0.0 0.00 0.00 0.00 65 1022.5
20260902051833 81 124 0.0 0.0 0.00 0.00 0.00 66 1022.5
20260902051732 81 125 0.0 0.0 0.00 0.00 0.00 66 1022.5
20260902051631 81 124 0.0 0.0 0.00 0.00 0.00 65 1022.5
20260902051528 81 123 0.0 0.0 0.00 0.00 0.00 66 1022.5
20260902051430 81 124 0.0 0.0 0.00 0.00 0.00 66 1022.6
20260902051327 81 124 0.0 0.0 0.00 0.00 0.00 66 1022.6
20260902051218 81 135 0.0 0.0 0.00 0.00 0.00 66 1022.5
20260902051118 81 133 0.0 2.0 0.00 0.00 0.00 65 1022.5
20260902051016 81 136 0.0 2.0 0.00 0.00 0.00 65 1022.5
20260902050916 81 136 0.0 2.0 0.00 0.00 0.00 66 1022.4
20260902050817 81 136 0.0 2.0 0.00 0.00 0.00 66 1022.5
20260902050714 81 136 0.0 2.0 0.00 0.00 0.00 66 1022.5
20260902050616 81 136 1.0 2.0 0.00 0.00 0.00 66 1022.5
20260902050516 81 136 1.0 3.0 0.00 0.00 0.00 66 1022.6
20260902050414 81 134 1.0 3.0 0.00 0.00 0.00 66 1022.5
20260902050336 81 134 1.0 3.0 0.00 0.00 0.00 66 1022.5
20260902050328 81 134 1.0 3.0 0.00 0.00 0.00 66 1022.6
20260902050106 81 134 1.0 3.0 0.00 0.00 0.00 66 1022.6
20260902050007 81 134 1.0 3.0 0.00 0.00 0.00 66 1022.5
20260902045905 81 134 1.0 3.0 0.00 0.00 0.00 66 1022.5
20260902045806 81 125 1.0 3.0 0.00 0.00 0.00 66 1022.5
20260902045656 81 125 1.0 3.0 0.00 0.00 0.00 66 1022.5
20260902045555 81 124 0.0 3.0 0.00 0.00 0.00 66 1022.6
20260902045453 81 130 0.0 2.0 0.00 0.00 0.00 66 1022.5
20260902045353 81 128 0.0 2.0 0.00 0.00 0.00 66 1022.5
20260902045251 81 131 0.0 1.0 0.00 0.00 0.00 66 1022.5
20260902045151 81 131 0.0 1.0 0.00 0.00 0.00 66 1022.5
20260902045051 81 132 0.0 1.0 0.00 0.00 0.00 66 1022.4
20260902044950 81 132 0.0 1.0 0.00 0.00 0.00 66 1022.5
20260902044850 81 132 0.0 1.0 0.00 0.00 0.00 66 1022.4
20260902044747 81 132 0.0 1.0 0.00 0.00 0.00 66 1022.4
20260902044639 81 132 0.0 1.0 0.00 0.00 0.00 66 1022.4
20260902044541 81 132 0.0 1.0 0.00 0.00 0.00 66 1022.4
20260902044439 81 132 0.0 2.0 0.00 0.00 0.00 66 1022.4
20260902044339 81 132 0.0 2.0 0.00 0.00 0.00 66 1022.4
20260902044240 81 132 0.0 3.0 0.00 0.00 0.00 66 1022.5
20260902044136 81 132 1.0 3.0 0.00 0.00 0.00 66 1022.5
20260902044036 81 132 1.0 3.0 0.00 0.00 0.00 66 1022.4
20260902043935 81 132 1.0 3.0 0.00 0.00 0.00 66 1022.4
20260902043831 81 132 1.0 3.0 0.00 0.00 0.00 66 1022.4
20260902043729 81 132 1.0 3.0 0.00 0.00 0.00 66 1022.4
20260902043700 81 132 1.0 3.0 0.00 0.00 0.00 66 1022.5
20260902043650 81 132 1.0 3.0 0.00 0.00 0.00 66 1022.4
20260902043429 81 132 1.0 3.0 0.00 0.00 0.00 66 1022.5
20260902043330 81 132 1.0 3.0 0.00 0.00 0.00 66 1022.5
20260902043227 81 132 1.0 2.0 0.00 0.00 0.00 66 1022.4
20260902043126 81 136 0.0 2.0 0.00 0.00 0.00 67 1022.5
20260902043028 81 136 0.0 2.0 0.00 0.00 0.00 67 1022.5
20260902042955 81 136 0.0 2.0 0.00 0.00 0.00 67 1022.5
20260902042946 81 136 0.0 2.0 0.00 0.00 0.00 67 1022.4
20260902042806 81 156 0.0 2.0 0.00 0.00 0.00 67 1022.5
20260902042800 81 135 0.0 2.0 0.00 0.00 0.00 67 1022.4
20260902042755 81 205 0.0 2.0 0.00 0.00 0.00 67 1022.4
20260902042749 81 194 0.0 2.0 0.00 0.00 0.00 67 1022.4
20260902042735 81 137 0.0 2.0 0.00 0.00 0.00 67 1022.4
20260902042714 81 136 0.0 2.0 0.00 0.00 0.00 67 1022.4
20260902042532 81 205 0.0 2.0 0.00 0.00 0.00 67 1022.4
20260902042253 81 194 0.0 2.0 0.00 0.00 0.00 67 1022.4
20260902042022 81 156 0.0 2.0 0.00 0.00 0.00 67 1022.4
20260902041915 81 156 0.0 2.0 0.00 0.00 0.00 67 1022.5
20260902041815 81 157 0.0 2.0 0.00 0.00 0.00 67 1022.5
20260902041716 81 157 0.0 2.0 0.00 0.00 0.00 67 1022.5
20260902041615 81 155 0.0 2.0 0.00 0.00 0.00 67 1022.5
20260902041515 81 155 0.0 2.0 0.00 0.00 0.00 67 1022.6
20260902041412 81 155 0.0 2.0 0.00 0.00 0.00 67 1022.6
20260902041311 81 155 0.0 2.0 0.00 0.00 0.00 67 1022.5
20260902041213 81 155 0.0 2.0 0.00 0.00 0.00 67 1022.6
20260902041150 81 154 0.0 2.0 0.00 0.00 0.00 67 1022.6
20260902041138 81 155 0.0 2.0 0.00 0.00 0.00 67 1022.6
20260902040911 81 154 0.0 2.0 0.00 0.00 0.00 67 1022.5
20260902040808 81 154 0.0 2.0 0.00 0.00 0.00 67 1022.6
20260902040707 81 154 0.0 2.0 0.00 0.00 0.00 67 1022.6
20260902040605 81 140 0.0 2.0 0.00 0.00 0.00 67 1022.6
20260902040507 81 140 0.0 2.0 0.00 0.00 0.00 67 1022.5
20260902040404 81 140 0.0 3.0 0.00 0.00 0.00 67 1022.6
20260902040310 81 140 0.0 3.0 0.00 0.00 0.00 67 1022.5
20260902040203 81 140 0.0 4.0 0.00 0.00 0.00 67 1022.5
20260902040103 81 140 0.0 4.0 0.00 0.00 0.00 66 1022.4
20260902040001 81 140 0.0 4.0 0.00 0.00 0.00 67 1022.5
20260902035901 81 140 1.0 4.0 0.00 0.00 0.00 66 1022.5
20260902035801 81 104 1.0 4.0 0.00 0.00 0.00 66 1022.5
20260902035659 81 104 1.0 4.0 0.00 0.00 0.00 66 1022.5
20260902035559 81 104 1.0 4.0 0.00 0.00 0.00 66 1022.5
20260902035512 81 105 1.0 6.0 0.00 0.00 0.00 66 1022.5
20260902035409 81 168 1.0 6.0 0.00 0.00 0.00 66 1022.5
20260902035259 81 167 1.0 6.0 0.00 0.00 0.00 65 1022.6
20260902035155 81 186 1.0 6.0 0.00 0.00 0.00 65 1022.5
20260902035131 81 89 1.0 6.0 0.00 0.00 0.00 65 1022.5
20260902035120 81 89 1.0 6.0 0.00 0.00 0.00 65 1022.5
20260902034856 81 89 1.0 6.0 0.00 0.00 0.00 65 1022.5
20260902034753 81 103 1.0 6.0 0.00 0.00 0.00 65 1022.5
20260902034648 81 99 1.0 6.0 0.00 0.00 0.00 65 1022.5
20260902034547 81 112 2.0 6.0 0.00 0.00 0.00 65 1022.5
20260902034446 81 131 1.0 3.0 0.00 0.00 0.00 65 1022.5
20260902034346 81 134 1.0 3.0 0.00 0.00 0.00 65 1022.5
20260902034246 81 92 2.0 4.0 0.00 0.00 0.00 65 1022.5
20260902034142 81 90 2.0 4.0 0.00 0.00 0.00 64 1022.5
20260902034040 81 143 1.0 4.0 0.00 0.00 0.00 65 1022.6
20260902033939 81 63 1.0 4.0 0.00 0.00 0.00 64 1022.6
20260902033838 81 119 1.0 4.0 0.00 0.00 0.00 64 1022.6
20260902033744 81 119 1.0 4.0 0.00 0.00 0.00 64 1022.6
20260902033636 81 93 1.0 4.0 0.00 0.00 0.00 64 1022.6
20260902033534 81 88 1.0 4.0 0.00 0.00 0.00 64 1022.6
20260902033435 81 138 1.0 4.0 0.00 0.00 0.00 64 1022.6
20260902033331 81 92 1.0 4.0 0.00 0.00 0.00 64 1022.6
20260902033230 81 127 1.0 3.0 0.00 0.00 0.00 64 1022.6
20260902033128 81 119 1.0 3.0 0.00 0.00 0.00 64 1022.6
20260902033025 81 119 1.0 3.0 0.00 0.00 0.00 64 1022.6
20260902032926 81 119 1.0 3.0 0.00 0.00 0.00 63 1022.5
20260902032824 81 119 1.0 3.0 0.00 0.00 0.00 64 1022.6
20260902032726 81 119 1.0 3.0 0.00 0.00 0.00 63 1022.7
20260902032613 81 119 1.0 4.0 0.00 0.00 0.00 63 1022.6
20260902032527 81 119 1.0 4.0 0.00 0.00 0.00 63 1022.6
20260902032416 82 119 1.0 4.0 0.00 0.00 0.00 63 1022.6
20260902032314 82 119 1.0 6.0 0.00 0.00 0.00 63 1022.6
20260902032210 82 119 1.0 6.0 0.00 0.00 0.00 63 1022.5
20260902032153 82 119 2.0 6.0 0.00 0.00 0.00 63 1022.5
20260902032147 82 122 2.0 5.0 0.00 0.00 0.00 63 1022.6
20260902032142 82 119 2.0 6.0 0.00 0.00 0.00 63 1022.5
20260902032131 82 119 1.0 6.0 0.00 0.00 0.00 63 1022.5
20260902032112 82 119 2.0 6.0 0.00 0.00 0.00 63 1022.5
20260902031945 82 119 2.0 6.0 0.00 0.00 0.00 63 1022.6
20260902031806 82 119 2.0 6.0 0.00 0.00 0.00 63 1022.5
20260902031643 82 119 2.0 6.0 0.00 0.00 0.00 63 1022.5
20260902031302 82 122 1.0 5.0 0.00 0.00 0.00 63 1022.6
20260902031158 82 122 1.0 5.0 0.00 0.00 0.00 63 1022.6
20260902031054 82 122 1.0 5.0 0.00 0.00 0.00 64 1022.6
20260902030952 82 122 1.0 5.0 0.00 0.00 0.00 63 1022.6
20260902030850 82 120 1.0 3.0 0.00 0.00 0.00 63 1022.6
20260902030750 82 120 1.0 3.0 0.00 0.00 0.00 63 1022.6
20260902030649 82 120 1.0 3.0 0.00 0.00 0.00 63 1022.6
20260902030545 82 120 1.0 3.0 0.00 0.00 0.00 63 1022.7
20260902030441 82 120 2.0 3.0 0.00 0.00 0.00 63 1022.7
20260902030342 82 120 2.0 3.0 0.00 0.00 0.00 63 1022.6
20260902030317 82 120 2.0 3.0 0.00 0.00 0.00 63 1022.7
20260902030305 82 120 2.0 3.0 0.00 0.00 0.00 63 1022.7
20260902030039 82 120 2.0 3.0 0.00 0.00 0.00 63 1022.6
20260902025940 82 120 2.0 4.0 0.00 0.00 0.00 63 1022.6
20260902025839 82 120 2.0 4.0 0.00 0.00 0.00 63 1022.7
20260902025817 81 120 2.0 4.0 0.00 0.00 0.00 63 1022.7
20260902025804 82 120 2.0 4.0 0.00 0.00 0.00 63 1022.7
20260902025532 81 120 2.0 4.0 0.00 0.00 0.00 63 1022.6
20260902025430 81 120 2.0 4.0 0.00 0.00 0.00 63 1022.7
20260902025328 81 120 2.0 4.0 0.00 0.00 0.00 63 1022.6
20260902025226 81 120 2.0 4.0 0.00 0.00 0.00 63 1022.7
20260902025202 81 119 2.0 3.0 0.00 0.00 0.00 63 1022.7
20260902025152 81 120 2.0 4.0 0.00 0.00 0.00 63 1022.7
20260902024928 81 119 2.0 3.0 0.00 0.00 0.00 63 1022.7
20260902024828 81 119 2.0 3.0 0.00 0.00 0.00 63 1022.7
20260902024727 81 124 2.0 3.0 0.00 0.00 0.00 63 1022.7
20260902024628 81 124 2.0 3.0 0.00 0.00 0.00 63 1022.7
20260902024528 81 124 2.0 3.0 0.00 0.00 0.00 63 1022.7
20260902024426 81 124 2.0 3.0 0.00 0.00 0.00 62 1022.6
20260902024356 81 124 2.0 3.0 0.00 0.00 0.00 62 1022.6
20260902024346 81 124 2.0 3.0 0.00 0.00 0.00 63 1022.6
20260902024122 81 124 2.0 3.0 0.00 0.00 0.00 62 1022.7
20260902024024 81 124 2.0 3.0 0.00 0.00 0.00 62 1022.6
20260902023937 82 124 2.0 3.0 0.00 0.00 0.00 62 1022.7
20260902023924 81 124 2.0 3.0 0.00 0.00 0.00 62 1022.7
20260902023917 82 124 2.0 3.0 0.00 0.00 0.00 62 1022.7
20260902023912 82 124 2.0 3.0 0.00 0.00 0.00 62 1022.6
20260902023856 81 124 2.0 3.0 0.00 0.00 0.00 62 1022.7
20260902023839 82 124 2.0 3.0 0.00 0.00 0.00 62 1022.7
20260902023318 82 124 2.0 3.0 0.00 0.00 0.00 62 1022.6
20260902023218 82 124 2.0 3.0 0.00 0.00 0.00 62 1022.6
20260902023121 82 124 1.0 3.0 0.00 0.00 0.00 62 1022.6
20260902023018 82 124 2.0 3.0 0.00 0.00 0.00 62 1022.6
20260902022920 82 124 2.0 3.0 0.00 0.00 0.00 62 1022.6
20260902022817 82 124 1.0 3.0 0.00 0.00 0.00 62 1022.6
20260902022718 82 124 2.0 3.0 0.00 0.00 0.00 62 1022.6
20260902022615 82 124 2.0 3.0 0.00 0.00 0.00 62 1022.7
20260902022518 82 124 2.0 3.0 0.00 0.00 0.00 62 1022.7
20260902022508 82 124 2.0 3.0 0.00 0.00 0.00 62 1022.7
20260902022500 82 124 2.0 3.0 0.00 0.00 0.00 62 1022.7
20260902022447 82 124 2.0 3.0 0.00 0.00 0.00 62 1022.6
20260902022418 82 124 2.0 3.0 0.00 0.00 0.00 62 1022.7
20260902022117 82 124 2.0 3.0 0.00 0.00 0.00 62 1022.6
20260902022014 82 123 2.0 3.0 0.00 0.00 0.00 61 1022.7
20260902021915 82 123 2.0 3.0 0.00 0.00 0.00 61 1022.7
20260902021813 82 123 2.0 3.0 0.00 0.00 0.00 61 1022.7
20260902021713 82 123 2.0 3.0 0.00 0.00 0.00 61 1022.7
20260902021617 82 127 2.0 3.0 0.00 0.00 0.00 61 1022.6
20260902021532 82 127 2.0 3.0 0.00 0.00 0.00 61 1022.7
20260902021517 82 127 2.0 3.0 0.00 0.00 0.00 61 1022.7
20260902021452 82 127 2.0 3.0 0.00 0.00 0.00 61 1022.7
20260902021205 82 127 1.0 3.0 0.00 0.00 0.00 61 1022.7
20260902021146 82 117 1.0 3.0 0.00 0.00 0.00 61 1022.7
20260902021128 82 121 1.0 3.0 0.00 0.00 0.00 61 1022.7
20260902020901 82 111 1.0 3.0 0.00 0.00 0.00 60 1022.7
20260902020802 82 113 1.0 3.0 0.00 0.00 0.00 60 1022.7
20260902020702 82 119 1.0 3.0 0.00 0.00 0.00 60 1022.7
20260902020606 82 118 1.0 3.0 0.00 0.00 0.00 60 1022.6
20260902020457 82 117 1.0 3.0 0.00 0.00 0.00 60 1022.6
20260902020355 82 118 1.0 4.0 0.00 0.00 0.00 60 1022.7
20260902020254 82 157 1.0 4.0 0.00 0.00 0.00 60 1022.7
20260902020157 82 120 1.0 4.0 0.00 0.00 0.00 60 1022.7
20260902020053 82 119 1.0 4.0 0.00 0.00 0.00 60 1022.7
20260902015957 82 116 1.0 4.0 0.00 0.00 0.00 59 1022.7
20260902015936 82 116 1.0 4.0 0.00 0.00 0.00 60 1022.7
20260902015922 82 116 1.0 4.0 0.00 0.00 0.00 60 1022.7
20260902015732 82 113 2.0 6.0 0.00 0.00 0.00 60 1022.6
20260902015718 82 116 1.0 4.0 0.00 0.00 0.00 60 1022.6
20260902015648 82 115 1.0 4.0 0.00 0.00 0.00 60 1022.7
20260902015525 82 115 1.0 4.0 0.00 0.00 0.00 60 1022.7
20260902015249 82 103 2.0 6.0 0.00 0.00 0.00 60 1022.7
20260902015149 82 103 2.0 6.0 0.00 0.00 0.00 60 1022.6
20260902015047 82 103 2.0 6.0 0.00 0.00 0.00 60 1022.6
20260902014946 82 114 2.0 6.0 0.00 0.00 0.00 59 1022.6
20260902014846 82 114 2.0 6.0 0.00 0.00 0.00 59 1022.7
20260902014742 82 126 2.0 6.0 0.00 0.00 0.00 59 1022.7
20260902014644 82 126 2.0 6.0 0.00 0.00 0.00 60 1022.7
20260902014542 82 126 2.0 6.0 0.00 0.00 0.00 60 1022.7
20260902014501 82 120 2.0 4.0 0.00 0.00 0.00 60 1022.6
20260902014456 82 119 2.0 4.0 0.00 0.00 0.00 59 1022.6
20260902014443 82 121 2.0 6.0 0.00 0.00 0.00 60 1022.7
20260902014416 82 128 2.0 4.0 0.00 0.00 0.00 60 1022.6
20260902014037 82 124 2.0 4.0 0.00 0.00 0.00 59 1022.6
20260902013934 82 123 2.0 4.0 0.00 0.00 0.00 59 1022.6
20260902013827 82 123 2.0 6.0 0.00 0.00 0.00 59 1022.6
20260902013727 82 119 2.0 6.0 0.00 0.00 0.00 59 1022.6
20260902013627 82 119 2.0 6.0 0.00 0.00 0.00 59 1022.6
20260902013526 82 124 2.0 6.0 0.00 0.00 0.00 59 1022.6
20260902013449 82 123 2.0 6.0 0.00 0.00 0.00 59 1022.6
20260902013441 82 124 2.0 6.0 0.00 0.00 0.00 60 1022.6
20260902013218 82 128 2.0 6.0 0.00 0.00 0.00 59 1022.5
20260902013119 82 111 2.0 6.0 0.00 0.00 0.00 60 1022.5
20260902013018 82 113 2.0 6.0 0.00 0.00 0.00 60 1022.6
20260902012919 82 105 2.0 6.0 0.00 0.00 0.00 60 1022.5
20260902012819 82 121 2.0 4.0 0.00 0.00 0.00 60 1022.5
20260902012719 82 101 2.0 4.0 0.00 0.00 0.00 60 1022.5
20260902012619 82 106 2.0 4.0 0.00 0.00 0.00 60 1022.5
20260902012520 82 111 2.0 4.0 0.00 0.00 0.00 61 1022.5
20260902012418 82 98 2.0 4.0 0.00 0.00 0.00 61 1022.5
20260902012352 82 125 2.0 4.0 0.00 0.00 0.00 62 1022.4
20260902012340 82 98 2.0 4.0 0.00 0.00 0.00 62 1022.4
20260902012117 82 129 2.0 4.0 0.00 0.00 0.00 62 1022.4
20260902012045 82 108 2.0 4.0 0.00 0.00 0.00 63 1022.5
20260902012036 82 129 2.0 4.0 0.00 0.00 0.00 63 1022.4
20260902011816 82 93 2.0 4.0 0.00 0.00 0.00 63 1022.4
20260902011714 82 106 2.0 4.0 0.00 0.00 0.00 63 1022.5
20260902011614 82 99 2.0 4.0 0.00 0.00 0.00 63 1022.4
20260902011548 82 98 2.0 4.0 0.00 0.00 0.00 63 1022.4
20260902011537 82 99 2.0 4.0 0.00 0.00 0.00 63 1022.4
20260902011345 82 105 2.0 4.0 0.00 0.00 0.00 64 1022.4
20260902011335 82 105 2.0 4.0 0.00 0.00 0.00 63 1022.4
20260902011113 82 101 2.0 4.0 0.00 0.00 0.00 63 1022.3
20260902011013 83 101 2.0 4.0 0.00 0.00 0.00 63 1022.4
20260902010949 83 105 2.0 4.0 0.00 0.00 0.00 63 1022.4
20260902010937 83 105 2.0 4.0 0.00 0.00 0.00 63 1022.4
20260902010712 83 101 2.0 4.0 0.00 0.00 0.00 63 1022.4
20260902010613 83 101 2.0 4.0 0.00 0.00 0.00 63 1022.4
20260902010521 83 100 2.0 4.0 0.00 0.00 0.00 63 1022.3
20260902010407 83 96 2.0 4.0 0.00 0.00 0.00 63 1022.3
20260902010306 83 83 2.0 6.0 0.00 0.00 0.00 63 1022.4
20260902010206 83 97 2.0 6.0 0.00 0.00 0.00 63 1022.3
20260902010143 83 98 2.0 6.0 0.00 0.00 0.00 63 1022.3
20260902010131 83 88 2.0 6.0 0.00 0.00 0.00 63 1022.4
20260902005903 83 98 2.0 6.0 0.00 0.00 0.00 63 1022.3
20260902005833 83 94 2.0 6.0 0.00 0.00 0.00 64 1022.4
20260902005824 83 98 2.0 6.0 0.00 0.00 0.00 64 1022.3
20260902005559 83 94 2.0 6.0 0.00 0.00 0.00 64 1022.3
20260902005500 83 89 2.0 6.0 0.00 0.00 0.00 64 1022.3
20260902005346 83 89 2.0 6.0 0.00 0.00 0.00 64 1022.3
20260902005332 83 94 2.0 4.0 0.00 0.00 0.00 64 1022.3
20260902005320 83 94 2.0 4.0 0.00 0.00 0.00 64 1022.3
20260902005045 83 94 2.0 4.0 0.00 0.00 0.00 64 1022.3
20260902004949 83 126 2.0 4.0 0.00 0.00 0.00 64 1022.3
20260902004842 83 126 2.0 4.0 0.00 0.00 0.00 64 1022.2
20260902004744 83 91 2.0 4.0 0.00 0.00 0.00 64 1022.2
20260902004644 83 91 2.0 4.0 0.00 0.00 0.00 64 1022.3
20260902004541 83 86 2.0 4.0 0.00 0.00 0.00 64 1022.2
20260902004442 83 86 2.0 6.0 0.00 0.00 0.00 64 1022.3
20260902004342 83 102 2.0 6.0 0.00 0.00 0.00 64 1022.2
20260902004237 83 102 2.0 6.0 0.00 0.00 0.00 64 1022.2
20260902004139 83 102 2.0 6.0 0.00 0.00 0.00 64 1022.2
20260902004036 83 102 2.0 6.0 0.00 0.00 0.00 64 1022.2
20260902003934 83 102 2.0 6.0 0.00 0.00 0.00 64 1022.2
20260902003906 83 101 2.0 6.0 0.00 0.00 0.00 64 1022.2
20260902003853 83 102 2.0 6.0 0.00 0.00 0.00 64 1022.2
20260902003625 83 119 2.0 6.0 0.00 0.00 0.00 64 1022.2
20260902003525 83 97 2.0 4.0 0.00 0.00 0.00 64 1022.2
20260902003425 83 96 2.0 4.0 0.00 0.00 0.00 64 1022.1
20260902003326 83 96 2.0 4.0 0.00 0.00 0.00 64 1022.2
20260902003227 83 95 2.0 4.0 0.00 0.00 0.00 64 1022.2
20260902003126 83 95 2.0 4.0 0.00 0.00 0.00 64 1022.2
20260902003054 83 82 2.0 4.0 0.00 0.00 0.00 64 1022.2
20260902003044 83 82 2.0 4.0 0.00 0.00 0.00 64 1022.2
20260902002825 83 82 2.0 4.0 0.00 0.00 0.00 64 1022.2
20260902002812 83 80 2.0 4.0 0.00 0.00 0.00 64 1022.3
20260902002806 83 80 2.0 4.0 0.00 0.00 0.00 64 1022.3
20260902002759 83 79 2.0 4.0 0.00 0.00 0.00 64 1022.3
20260902002748 83 80 2.0 4.0 0.00 0.00 0.00 64 1022.2
20260902002600 83 80 2.0 4.0 0.00 0.00 0.00 64 1022.2
20260902002218 83 79 2.0 4.0 0.00 0.00 0.00 64 1022.3
20260902002120 83 79 2.0 5.0 0.00 0.00 0.00 64 1022.2
20260902002021 83 80 2.0 5.0 0.00 0.00 0.00 64 1022.4
20260902001916 83 86 2.0 5.0 0.00 0.00 0.00 64 1022.2
20260902001815 83 86 3.0 5.0 0.00 0.00 0.00 64 1022.3
20260902001715 83 86 3.0 5.0 0.00 0.00 0.00 64 1022.2
20260902001615 83 86 3.0 5.0 0.00 0.00 0.00 64 1022.2
20260902001545 83 86 3.0 5.0 0.00 0.00 0.00 64 1022.2
20260902001417 83 86 2.0 5.0 0.00 0.00 0.00 64 1022.2
20260902001314 83 71 2.0 5.0 0.00 0.00 0.00 64 1022.2
20260902001216 83 71 2.0 5.0 0.00 0.00 0.00 64 1022.2
20260902001114 83 72 2.0 4.0 0.00 0.00 0.00 64 1022.2
20260902001016 83 97 2.0 4.0 0.00 0.00 0.00 64 1022.2
20260902000915 83 98 2.0 4.0 0.00 0.00 0.00 64 1022.3
20260902000815 83 98 2.0 4.0 0.00 0.00 0.00 64 1022.2
20260902000716 83 105 2.0 3.0 0.00 0.00 0.00 64 1022.2
20260902000616 83 105 2.0 3.0 0.00 0.00 0.00 64 1022.3
20260902000516 83 103 2.0 3.0 0.00 0.00 0.00 64 1022.2
20260902000414 83 103 2.0 3.0 0.00 0.00 0.00 64 1022.2
20260902000316 83 103 2.0 3.0 0.00 0.00 0.00 64 1022.3
20260902000234 84 101 2.0 4.0 0.00 0.00 0.00 64 1022.2
20260902000228 83 102 2.0 3.0 0.00 0.00 0.00 64 1022.3
20260902000218 83 103 2.0 3.0 0.00 0.00 0.00 64 1022.3
20260902000153 83 102 2.0 3.0 0.00 0.00 0.00 64 1022.2
20260902000008 84 102 2.0 3.0 0.00 0.00 0.00 63 1022.3
20260901235843 84 101 2.0 4.0 0.00 0.00 0.00 64 1022.2
20260901235614 84 101 2.0 4.0 0.00 0.00 0.00 63 1022.3
20260901235514 84 101 2.0 4.0 0.00 0.00 0.00 63 1022.3
20260901235415 84 100 2.0 4.0 0.00 0.00 0.00 63 1022.2
20260901235315 84 100 2.0 4.0 0.00 0.00 0.00 63 1022.2
20260901235217 84 100 2.0 4.0 0.00 0.00 0.00 63 1022.3
20260901235115 84 98 2.0 4.0 0.00 0.00 0.00 63 1022.3
20260901235015 84 98 2.0 4.0 0.00 0.00 0.00 63 1022.3
20260901234914 84 99 2.0 4.0 0.00 0.00 0.00 63 1022.4
20260901234816 84 86 2.0 4.0 0.00 0.00 0.00 63 1022.3
20260901234747 84 86 2.0 4.0 0.00 0.00 0.00 63 1022.3
20260901234735 84 86 2.0 4.0 0.00 0.00 0.00 63 1022.4
20260901234520 84 59 2.0 4.0 0.00 0.00 0.00 63 1022.3
20260901234455 84 58 2.0 4.0 0.00 0.00 0.00 63 1022.3
20260901234441 84 59 2.0 4.0 0.00 0.00 0.00 63 1022.3
20260901234221 84 57 2.0 4.0 0.00 0.00 0.00 63 1022.2
20260901234114 84 57 2.0 4.0 0.00 0.00 0.00 63 1022.3
20260901234017 84 57 2.0 4.0 0.00 0.00 0.00 63 1022.3
20260901233915 84 57 2.0 4.0 0.00 0.00 0.00 63 1022.3
20260901233815 84 57 2.0 4.0 0.00 0.00 0.00 63 1022.2
20260901233739 84 92 2.0 4.0 0.00 0.00 0.00 62 1022.3
20260901233726 84 57 2.0 4.0 0.00 0.00 0.00 63 1022.3
20260901233704 84 57 2.0 4.0 0.00 0.00 0.00 63 1022.3
20260901233538 84 52 2.0 4.0 0.00 0.00 0.00 62 1022.2
20260901233316 85 92 2.0 4.0 0.00 0.00 0.00 63 1022.3
20260901233211 84 92 2.0 4.0 0.00 0.00 0.00 63 1022.3
20260901233110 85 92 2.0 4.0 0.00 0.00 0.00 62 1022.3
20260901233040 85 92 2.0 4.0 0.00 0.00 0.00 62 1022.3
20260901233029 85 92 2.0 4.0 0.00 0.00 0.00 62 1022.2
20260901232845 85 94 2.0 5.0 0.00 0.00 0.00 62 1022.4
20260901232835 85 93 2.0 4.0 0.00 0.00 0.00 62 1022.3
20260901232612 85 69 2.0 5.0 0.00 0.00 0.00 62 1022.4
20260901232511 85 69 2.0 5.0 0.00 0.00 0.00 62 1022.4
20260901232411 85 69 2.0 5.0 0.00 0.00 0.00 62 1022.5
20260901232312 85 61 2.0 5.0 0.00 0.00 0.00 61 1022.5
20260901232241 85 61 2.0 5.0 0.00 0.00 0.00 61 1022.5
20260901232231 85 61 2.0 5.0 0.00 0.00 0.00 61 1022.4
20260901231957 85 60 2.0 5.0 0.00 0.00 0.00 62 1022.5
20260901231925 85 58 2.0 5.0 0.00 0.00 0.00 62 1022.5
20260901231917 85 60 2.0 5.0 0.00 0.00 0.00 61 1022.5
20260901231654 85 53 2.0 4.0 0.00 0.00 0.00 61 1022.5
20260901231555 85 61 1.0 4.0 0.00 0.00 0.00 61 1022.5
20260901231453 85 61 1.0 4.0 0.00 0.00 0.00 61 1022.5
20260901231351 85 62 1.0 4.0 0.00 0.00 0.00 61 1022.5
20260901231250 85 61 1.0 5.0 0.00 0.00 0.00 61 1022.6
20260901231150 85 61 2.0 5.0 0.00 0.00 0.00 61 1022.6
20260901231050 85 61 2.0 5.0 0.00 0.00 0.00 61 1022.6
20260901230951 85 76 1.0 5.0 0.00 0.00 0.00 61 1022.5
20260901230847 86 74 1.0 5.0 0.00 0.00 0.00 60 1022.5
20260901230745 86 75 1.0 5.0 0.00 0.00 0.00 60 1022.5
20260901230647 86 75 1.0 5.0 0.00 0.00 0.00 60 1022.5
20260901230547 86 75 1.0 5.0 0.00 0.00 0.00 60 1022.5
20260901230437 86 76 1.0 5.0 0.00 0.00 0.00 60 1022.5
20260901230337 86 65 1.0 5.0 0.00 0.00 0.00 60 1022.5
20260901230237 86 90 1.0 5.0 0.00 0.00 0.00 60 1022.5
20260901230137 86 90 1.0 5.0 0.00 0.00 0.00 59 1022.4
20260901230037 86 90 1.0 5.0 0.00 0.00 0.00 60 1022.4
20260901225939 86 90 1.0 5.0 0.00 0.00 0.00 59 1022.4
20260901225857 86 72 1.0 4.0 0.00 0.00 0.00 58 1022.4
20260901225844 86 90 1.0 5.0 0.00 0.00 0.00 59 1022.5
20260901225819 86 90 1.0 5.0 0.00 0.00 0.00 59 1022.5
20260901225654 86 72 1.0 4.0 0.00 0.00 0.00 59 1022.5
20260901225434 86 72 1.0 4.0 0.00 0.00 0.00 58 1022.4
20260901225402 86 72 1.0 4.0 0.00 0.00 0.00 59 1022.5
20260901225351 86 72 1.0 4.0 0.00 0.00 0.00 58 1022.4
20260901225131 86 72 1.0 4.0 0.00 0.00 0.00 58 1022.5
20260901225108 86 71 1.0 4.0 0.00 0.00 0.00 58 1022.5
20260901225053 86 72 1.0 4.0 0.00 0.00 0.00 58 1022.5
20260901224829 86 71 1.0 4.0 0.00 0.00 0.00 57 1022.4
20260901224723 86 74 0.0 3.0 0.00 0.00 0.00 57 1022.5
20260901224624 86 74 0.0 3.0 0.00 0.00 0.00 57 1022.5
20260901224522 86 74 0.0 3.0 0.00 0.00 0.00 58 1022.5
20260901224425 86 74 0.0 2.0 0.00 0.00 0.00 58 1022.4
20260901224322 86 74 1.0 2.0 0.00 0.00 0.00 58 1022.5
20260901224223 86 75 1.0 3.0 0.00 0.00 0.00 59 1022.5
20260901224116 87 75 1.0 4.0 0.00 0.00 0.00 59 1022.5
20260901224017 87 75 1.0 4.0 0.00 0.00 0.00 58 1022.5
20260901223916 87 75 1.0 4.0 0.00 0.00 0.00 58 1022.4
20260901223838 87 75 2.0 4.0 0.00 0.00 0.00 59 1022.5
20260901223833 87 75 2.0 4.0 0.00 0.00 0.00 58 1022.5
20260901223821 87 75 2.0 4.0 0.00 0.00 0.00 59 1022.5
20260901223757 87 75 2.0 4.0 0.00 0.00 0.00 58 1022.5
20260901223449 87 75 1.0 4.0 0.00 0.00 0.00 57 1022.5
20260901223438 87 75 2.0 4.0 0.00 0.00 0.00 58 1022.5
20260901223243 87 75 1.0 3.0 0.00 0.00 0.00 57 1022.5
20260901223232 87 75 1.0 4.0 0.00 0.00 0.00 57 1022.6
20260901223011 87 74 1.0 3.0 0.00 0.00 0.00 58 1022.5
20260901222910 87 75 1.0 2.0 0.00 0.00 0.00 59 1022.5
20260901222829 87 75 2.0 4.0 0.00 0.00 0.00 57 1022.5
20260901222823 87 75 2.0 4.0 0.00 0.00 0.00 58 1022.5
20260901222812 87 75 1.0 4.0 0.00 0.00 0.00 58 1022.5
20260901222752 87 75 2.0 4.0 0.00 0.00 0.00 58 1022.5
20260901222408 87 75 2.0 4.0 0.00 0.00 0.00 58 1022.4
20260901222345 87 75 2.0 4.0 0.00 0.00 0.00 58 1022.4
20260901222332 87 75 2.0 4.0 0.00 0.00 0.00 58 1022.5
20260901222105 87 74 2.0 4.0 0.00 0.00 0.00 58 1022.5
20260901222004 87 74 2.0 4.0 0.00 0.00 0.00 58 1022.4
20260901221904 87 74 2.0 4.0 0.00 0.00 0.00 57 1022.4
20260901221805 87 69 2.0 4.0 0.00 0.00 0.00 57 1022.5
20260901221706 87 68 2.0 4.0 0.00 0.00 0.00 58 1022.4
20260901221611 87 68 2.0 4.0 0.00 0.00 0.00 58 1022.4
20260901221505 87 68 2.0 4.0 0.00 0.00 0.00 58 1022.4
20260901221404 87 68 2.0 4.0 0.00 0.00 0.00 57 1022.4
20260901221304 87 68 2.0 4.0 0.00 0.00 0.00 57 1022.4
20260901221249 88 65 2.0 4.0 0.00 0.00 0.00 57 1022.4
20260901221234 88 68 2.0 4.0 0.00 0.00 0.00 56 1022.4
20260901221003 88 65 2.0 5.0 0.00 0.00 0.00 58 1022.4
20260901220903 88 53 2.0 5.0 0.00 0.00 0.00 57 1022.4
20260901220802 88 46 2.0 5.0 0.00 0.00 0.00 57 1022.4
20260901220742 88 87 2.0 5.0 0.00 0.00 0.00 57 1022.4
20260901220727 88 46 2.0 5.0 0.00 0.00 0.00 56 1022.4
20260901220501 88 87 2.0 6.0 0.00 0.00 0.00 57 1022.4
20260901220358 88 87 2.0 6.0 0.00 0.00 0.00 57 1022.3
20260901220259 88 87 2.0 6.0 0.00 0.00 0.00 56 1022.4
20260901220224 89 98 2.0 6.0 0.00 0.00 0.00 56 1022.4
20260901220215 88 83 2.0 6.0 0.00 0.00 0.00 56 1022.4
20260901215954 89 79 2.0 6.0 0.00 0.00 0.00 56 1022.3
20260901215854 89 123 2.0 6.0 0.00 0.00 0.00 56 1022.4
20260901215831 89 88 2.0 6.0 0.00 0.00 0.00 56 1022.4
20260901215819 89 111 2.0 6.0 0.00 0.00 0.00 56 1022.4
20260901215556 89 103 2.0 6.0 0.00 0.00 0.00 55 1022.4
20260901215453 89 108 2.0 6.0 0.00 0.00 0.00 55 1022.4
20260901215406 89 107 3.0 6.0 0.00 0.00 0.00 56 1022.4
20260901215356 89 109 2.0 6.0 0.00 0.00 0.00 54 1022.4
20260901215349 89 107 3.0 6.0 0.00 0.00 0.00 55 1022.4
20260901215328 89 109 2.0 6.0 0.00 0.00 0.00 55 1022.4
20260901214951 89 107 3.0 6.0 0.00 0.00 0.00 54 1022.4
20260901214852 89 94 2.0 6.0 0.00 0.00 0.00 54 1022.4
20260901214748 89 109 2.0 6.0 0.00 0.00 0.00 54 1022.4
20260901214651 89 96 2.0 6.0 0.00 0.00 0.00 54 1022.4
20260901214542 89 117 2.0 5.0 0.00 0.00 0.00 54 1022.4
20260901214442 89 117 2.0 4.0 0.00 0.00 0.00 54 1022.4
20260901214343 89 119 2.0 6.0 0.00 0.00 0.00 55 1022.4
20260901214245 89 120 2.0 6.0 0.00 0.00 0.00 56 1022.4
20260901214142 89 111 2.0 6.0 0.00 0.00 0.00 55 1022.4
20260901214037 89 59 2.0 6.0 0.00 0.00 0.00 55 1022.4
20260901213939 89 57 2.0 6.0 0.00 0.00 0.00 55 1022.5
20260901213839 89 59 2.0 6.0 0.00 0.00 0.00 56 1022.4
20260901213738 89 59 2.0 6.0 0.00 0.00 0.00 55 1022.4
20260901213636 89 59 2.0 6.0 0.00 0.00 0.00 55 1022.4
20260901213602 89 116 3.0 7.0 0.00 0.00 0.00 56 1022.5
20260901213550 89 116 2.0 7.0 0.00 0.00 0.00 55 1022.5
20260901213408 89 76 3.0 8.0 0.00 0.00 0.00 54 1022.5
20260901213354 89 85 3.0 8.0 0.00 0.00 0.00 55 1022.5
20260901213127 89 76 3.0 8.0 0.00 0.00 0.00 54 1022.5
20260901213028 89 76 3.0 8.0 0.00 0.00 0.00 54 1022.5
20260901212928 89 76 4.0 8.0 0.00 0.00 0.00 54 1022.5
20260901212834 89 76 4.0 8.0 0.00 0.00 0.00 55 1022.5
20260901212724 89 75 3.0 8.0 0.00 0.00 0.00 55 1022.5
20260901212627 89 71 3.0 8.0 0.00 0.00 0.00 55 1022.5
20260901212525 89 59 2.0 8.0 0.00 0.00 0.00 55 1022.4
20260901212425 89 69 2.0 8.0 0.00 0.00 0.00 54 1022.5
20260901212325 90 78 2.0 7.0 0.00 0.00 0.00 55 1022.5
20260901212224 90 72 1.0 6.0 0.00 0.00 0.00 55 1022.4
20260901212126 90 57 1.0 5.0 0.00 0.00 0.00 55 1022.4
20260901212026 90 58 1.0 5.0 0.00 0.00 0.00 54 1022.4
20260901211955 90 94 1.0 4.0 0.00 0.00 0.00 54 1022.4
20260901211944 90 66 1.0 4.0 0.00 0.00 0.00 54 1022.4
20260901211717 89 115 2.0 6.0 0.00 0.00 0.00 54 1022.5
20260901211650 89 63 2.0 7.0 0.00 0.00 0.00 54 1022.5
20260901211641 89 63 2.0 7.0 0.00 0.00 0.00 54 1022.5
20260901211418 89 63 2.0 7.0 0.00 0.00 0.00 54 1022.5
20260901211314 89 63 2.0 7.0 0.00 0.00 0.00 55 1022.6
20260901211211 89 63 2.0 7.0 0.00 0.00 0.00 55 1022.6
20260901211110 89 63 2.0 7.0 0.00 0.00 0.00 55 1022.5
20260901211011 89 61 2.0 7.0 0.00 0.00 0.00 55 1022.6
20260901210912 89 62 2.0 7.0 0.00 0.00 0.00 54 1022.6
20260901210805 89 61 2.0 7.0 0.00 0.00 0.00 55 1022.6
20260901210705 89 63 2.0 7.0 0.00 0.00 0.00 55 1022.6
20260901210643 89 38 2.0 6.0 0.00 0.00 0.00 53 1022.6
20260901210629 89 56 2.0 6.0 0.00 0.00 0.00 54 1022.6
20260901210406 89 23 2.0 6.0 0.00 0.00 0.00 53 1022.5
20260901210341 89 23 2.0 6.0 0.00 0.00 0.00 52 1022.6
20260901210323 89 23 2.0 6.0 0.00 0.00 0.00 52 1022.6
20260901210055 89 23 2.0 6.0 0.00 0.00 0.00 53 1022.6
20260901205956 89 32 2.0 6.0 0.00 0.00 0.00 53 1022.6
20260901205856 89 38 2.0 6.0 0.00 0.00 0.00 54 1022.7
20260901205751 89 41 2.0 6.0 0.00 0.00 0.00 54 1022.6
20260901205648 89 61 2.0 5.0 0.00 0.00 0.00 54 1022.6
20260901205549 89 61 2.0 5.0 0.00 0.00 0.00 54 1022.6
20260901205450 89 61 2.0 6.0 0.00 0.00 0.00 53 1022.6
20260901205349 89 61 3.0 6.0 0.00 0.00 0.00 52 1022.6
20260901205243 89 61 3.0 6.0 0.00 0.00 0.00 53 1022.7
20260901205225 89 51 3.0 6.0 0.00 0.00 0.00 52 1022.7
20260901205210 89 53 2.0 6.0 0.00 0.00 0.00 53 1022.7
20260901204943 89 51 3.0 6.0 0.00 0.00 0.00 53 1022.7
20260901204844 89 46 3.0 6.0 0.00 0.00 0.00 54 1022.6
20260901204736 89 70 2.0 6.0 0.00 0.00 0.00 54 1022.6
20260901204633 90 79 2.0 6.0 0.00 0.00 0.00 53 1022.6
20260901204616 89 86 2.0 5.0 0.00 0.00 0.00 56 1022.7
20260901204602 90 80 2.0 6.0 0.00 0.00 0.00 54 1022.7
20260901204345 89 49 2.0 4.0 0.00 0.00 0.00 54 1022.7
20260901204225 89 49 2.0 4.0 0.00 0.00 0.00 54 1022.7
20260901204205 89 76 2.0 4.0 0.00 0.00 0.00 57 1022.7
20260901204154 89 49 2.0 4.0 0.00 0.00 0.00 54 1022.6
20260901203930 89 76 2.0 4.0 0.00 0.00 0.00 55 1022.6
20260901203825 89 76 2.0 4.0 0.00 0.00 0.00 53 1022.7
20260901203726 89 111 2.0 4.0 0.00 0.00 0.00 53 1022.7
20260901203617 89 123 2.0 5.0 0.00 0.00 0.00 55 1022.7
20260901203519 89 114 2.0 5.0 0.00 0.00 0.00 56 1022.7
20260901203416 89 116 2.0 5.0 0.00 0.00 0.00 55 1022.7
20260901203317 89 80 2.0 6.0 0.00 0.00 0.00 54 1022.8
20260901203209 89 123 3.0 6.0 0.00 0.00 0.00 54 1022.7
20260901203108 89 124 3.0 6.0 0.00 0.00 0.00 54 1022.7
20260901203007 89 57 3.0 6.0 0.00 0.00 0.00 53 1022.8
20260901202910 89 57 3.0 6.0 0.00 0.00 0.00 54 1022.8
20260901202809 89 57 3.0 6.0 0.00 0.00 0.00 55 1022.7
20260901202704 89 57 3.0 6.0 0.00 0.00 0.00 57 1022.7
20260901202607 88 93 3.0 6.0 0.00 0.00 0.00 56 1022.7
20260901202541 88 94 3.0 6.0 0.00 0.00 0.00 56 1022.8
20260901202527 88 93 3.0 6.0 0.00 0.00 0.00 56 1022.7
20260901202301 88 65 3.0 6.0 0.00 0.00 0.00 56 1022.7
20260901202157 88 98 3.0 6.0 0.00 0.00 0.00 56 1022.8
20260901202055 88 124 3.0 6.0 0.00 0.00 0.00 54 1022.8
20260901201956 88 98 3.0 6.0 0.00 0.00 0.00 55 1022.8
20260901201937 88 86 3.0 6.0 0.00 0.00 0.00 56 1022.9
20260901201926 88 86 3.0 6.0 0.00 0.00 0.00 57 1022.7
20260901201715 88 65 2.0 5.0 0.00 0.00 0.00 56 1022.9
20260901201710 88 55 2.0 5.0 0.00 0.00 0.00 57 1023.0
20260901201652 88 53 3.0 5.0 0.00 0.00 0.00 56 1022.9
20260901201629 88 55 2.0 5.0 0.00 0.00 0.00 55 1022.9
20260901201242 88 92 2.0 4.0 0.00 0.00 0.00 57 1022.9
20260901201143 88 96 2.0 4.0 0.00 0.00 0.00 56 1022.9
20260901201035 88 94 2.0 4.0 0.00 0.00 0.00 56 1022.9
20260901201029 88 108 2.0 4.0 0.00 0.00 0.00 55 1022.9
20260901201013 88 108 2.0 4.0 0.00 0.00 0.00 56 1023.0
20260901200750 88 108 2.0 5.0 0.00 0.00 0.00 56 1022.9
20260901200640 88 108 2.0 6.0 0.00 0.00 0.00 57 1022.9
20260901200546 88 108 3.0 6.0 0.00 0.00 0.00 57 1022.9
20260901200440 88 78 3.0 6.0 0.00 0.00 0.00 57 1022.9
20260901200340 88 98 2.0 6.0 0.00 0.00 0.00 57 1022.9
20260901200228 88 77 2.0 6.0 0.00 0.00 0.00 57 1023.0
20260901200122 88 90 2.0 6.0 0.00 0.00 0.00 57 1022.9
20260901200023 88 119 2.0 6.0 0.00 0.00 0.00 58 1023.0
20260901195924 88 121 2.0 6.0 0.00 0.00 0.00 58 1023.1
20260901195842 88 55 2.0 6.0 0.00 0.00 0.00 57 1023.0
20260901195756 87 70 2.0 5.0 0.00 0.00 0.00 57 1023.0
20260901195752 87 70 2.0 5.0 0.00 0.00 0.00 58 1023.0
20260901195738 88 65 2.0 5.0 0.00 0.00 0.00 57 1022.9
20260901195709 88 81 2.0 5.0 0.00 0.00 0.00 56 1022.9
20260901195316 87 70 2.0 5.0 0.00 0.00 0.00 58 1023.0
20260901195213 87 70 2.0 5.0 0.00 0.00 0.00 57 1023.1
20260901195110 87 70 2.0 5.0 0.00 0.00 0.00 57 1023.0
20260901195010 87 69 3.0 5.0 0.00 0.00 0.00 57 1023.1
20260901194935 86 95 2.0 5.0 0.00 0.00 0.00 60 1023.1
20260901194919 87 69 3.0 5.0 0.00 0.00 0.00 57 1023.1
20260901194852 87 63 2.0 5.0 0.00 0.00 0.00 59 1023.0
20260901194553 86 47 2.0 5.0 0.00 0.00 0.00 60 1023.0
20260901194452 86 74 2.0 5.0 0.00 0.00 0.00 59 1023.0
20260901194351 86 215 2.0 7.0 0.00 0.00 0.00 59 1023.1
20260901194253 86 214 3.0 7.0 0.00 0.00 0.00 59 1023.1
20260901194153 85 214 2.0 7.0 0.00 0.00 0.00 59 1023.1
20260901194047 85 207 2.0 7.0 0.00 0.00 0.00 59 1023.1
20260901193946 85 222 2.0 7.0 0.00 0.00 0.00 61 1023.1
20260901193903 85 80 2.0 7.0 0.00 0.00 0.00 60 1023.1
20260901193849 85 80 2.0 7.0 0.00 0.00 0.00 61 1023.1
20260901193843 85 80 2.0 7.0 0.00 0.00 0.00 60 1023.1
20260901193825 85 80 2.0 7.0 0.00 0.00 0.00 61 1023.2
20260901193450 85 79 2.0 7.0 0.00 0.00 0.00 60 1023.1
20260901193342 85 78 2.0 7.0 0.00 0.00 0.00 61 1023.1
20260901193243 85 46 2.0 4.0 0.00 0.00 0.00 61 1023.2
20260901193143 85 46 1.0 4.0 0.00 0.00 0.00 63 1023.2
20260901193042 85 45 1.0 4.0 0.00 0.00 0.00 62 1023.2
20260901193023 85 45 1.0 4.0 0.00 0.00 0.00 60 1023.4
20260901193009 85 45 1.0 4.0 0.00 0.00 0.00 61 1023.2
20260901192815 85 45 1.0 3.0 0.00 0.00 0.00 60 1023.4
20260901192804 85 45 1.0 4.0 0.00 0.00 0.00 61 1023.4
20260901192540 85 45 0.0 3.0 0.00 0.00 0.00 60 1023.4
20260901192439 86 45 0.0 2.0 0.00 0.00 0.00 59 1023.4
20260901192340 86 45 0.0 2.0 0.00 0.00 0.00 59 1023.5
20260901192239 86 45 0.0 2.0 0.00 0.00 0.00 59 1023.4
20260901192137 86 45 0.0 2.0 0.00 0.00 0.00 58 1023.5
20260901192035 86 45 0.0 2.0 0.00 0.00 0.00 58 1023.5
20260901191935 86 45 0.0 2.0 0.00 0.00 0.00 62 1023.5
20260901191836 86 47 0.0 2.0 0.00 0.00 0.00 62 1023.5
20260901191732 86 47 1.0 3.0 0.00 0.00 0.00 62 1023.5
20260901191635 86 47 1.0 3.0 0.00 0.00 0.00 61 1023.5
20260901191531 86 47 1.0 3.0 0.00 0.00 0.00 60 1023.5
20260901191459 86 47 1.0 3.0 0.00 0.00 0.00 62 1023.5
20260901191449 86 47 1.0 3.0 0.00 0.00 0.00 63 1023.5
20260901191227 86 47 2.0 3.0 0.00 0.00 0.00 62 1023.6
20260901191125 86 47 2.0 3.0 0.00 0.00 0.00 60 1023.5
20260901191026 87 46 2.0 3.0 0.00 0.00 0.00 61 1023.5
20260901190924 87 47 2.0 3.0 0.00 0.00 0.00 60 1023.5
20260901190824 87 47 2.0 3.0 0.00 0.00 0.00 58 1023.6
20260901190723 87 47 2.0 4.0 0.00 0.00 0.00 57 1023.6
20260901190625 87 46 2.0 4.0 0.00 0.00 0.00 56 1023.6
20260901190524 87 45 2.0 5.0 0.00 0.00 0.00 58 1023.6
20260901190424 88 44 2.0 5.0 0.00 0.00 0.00 54 1023.6
20260901190323 88 329 2.0 6.0 0.00 0.00 0.00 56 1023.6
20260901190224 88 317 2.0 6.0 0.00 0.00 0.00 56 1023.6
20260901190123 88 317 2.0 6.0 0.00 0.00 0.00 55 1023.6
20260901190024 89 317 2.0 6.0 0.00 0.00 0.00 56 1023.6
20260901185926 89 233 2.0 6.0 0.00 0.00 0.00 54 1023.6
20260901185823 89 306 2.0 6.0 0.00 0.00 0.00 53 1023.6
20260901185725 89 312 2.0 7.0 0.00 0.00 0.00 54 1023.6
20260901185622 89 293 2.0 7.0 0.00 0.00 0.00 54 1023.7
20260901185520 89 290 2.0 7.0 0.00 0.00 0.00 54 1023.7
20260901185423 89 290 2.0 7.0 0.00 0.00 0.00 53 1023.7
20260901185324 89 340 2.0 7.0 0.00 0.00 0.00 54 1023.7
20260901185222 89 345 2.0 7.0 0.00 0.00 0.00 55 1023.7
20260901185114 89 38 2.0 7.0 0.00 0.00 0.00 54 1023.7
20260901185036 89 80 1.0 4.0 0.00 0.00 0.00 57 1023.7
20260901185021 89 41 2.0 7.0 0.00 0.00 0.00 57 1023.7
20260901184958 89 92 1.0 7.0 0.00 0.00 0.00 56 1023.7
20260901184831 89 67 2.0 6.0 0.00 0.00 0.00 58 1023.6
20260901184826 89 244 2.0 10.0 0.00 0.00 0.00 56 1023.7
20260901184811 89 84 1.0 4.0 0.00 0.00 0.00 55 1023.7
20260901184755 89 80 1.0 4.0 0.00 0.00 0.00 57 1023.7
20260901184702 89 73 1.0 4.0 0.00 0.00 0.00 56 1023.7
20260901184631 89 71 1.0 4.0 0.00 0.00 0.00 56 1023.7
20260901184201 88 194 2.0 10.0 0.00 0.00 0.00 56 1023.7
20260901184148 88 312 3.0 10.0 0.00 0.00 0.00 57 1023.6
20260901184136 87 312 3.0 10.0 0.00 0.00 0.00 58 1023.6
20260901184115 88 300 2.0 10.0 0.00 0.00 0.00 56 1023.7
20260901184048 88 312 3.0 10.0 0.00 0.00 0.00 57 1023.6
20260901183828 87 311 3.0 10.0 0.00 0.00 0.00 56 1023.6
20260901183816 87 312 3.0 10.0 0.00 0.00 0.00 55 1023.6
20260901183545 87 311 3.0 10.0 0.00 0.00 0.00 54 1023.6
20260901183447 88 325 3.0 10.0 0.00 0.00 0.00 55 1023.6
20260901183347 88 323 2.0 9.0 0.00 0.00 0.00 55 1023.6
20260901183248 88 231 2.0 6.0 0.00 0.00 0.00 55 1023.6
20260901183145 88 294 2.0 6.0 0.00 0.00 0.00 56 1023.6
20260901183046 88 306 2.0 6.0 0.00 0.00 0.00 54 1023.6
20260901183035 87 288 2.0 6.0 0.00 0.00 0.00 58 1023.6
20260901183029 87 288 2.0 6.0 0.00 0.00 0.00 60 1023.7
20260901183024 88 238 3.0 7.0 0.00 0.00 0.00 56 1023.6
20260901183018 88 304 2.0 7.0 0.00 0.00 0.00 55 1023.6
20260901183012 88 172 2.0 7.0 0.00 0.00 0.00 57 1023.6
20260901183005 87 283 2.0 7.0 0.00 0.00 0.00 57 1023.6
20260901182959 87 25 2.0 6.0 0.00 0.00 0.00 57 1023.6
20260901182948 88 317 2.0 5.0 0.00 0.00 0.00 55 1023.5
20260901182940 87 196 2.0 6.0 0.00 0.00 0.00 57 1023.6
20260901182919 88 355 2.0 5.0 0.00 0.00 0.00 53 1023.6
20260901182753 88 317 2.0 5.0 0.00 0.00 0.00 55 1023.6
20260901182731 88 109 2.0 7.0 0.00 0.00 0.00 57 1023.6
20260901182617 87 275 2.0 6.0 0.00 0.00 0.00 60 1023.7
20260901182604 88 106 2.0 7.0 0.00 0.00 0.00 56 1023.5
20260901182539 88 237 2.0 7.0 0.00 0.00 0.00 56 1023.5
20260901182221 87 305 2.0 7.0 0.00 0.00 0.00 58 1023.6
20260901182030 88 317 2.0 7.0 0.00 0.00 0.00 57 1023.7
20260901182004 88 321 2.0 7.0 0.00 0.00 0.00 55 1023.6
20260901181644 87 28 2.0 6.0 0.00 0.00 0.00 56 1023.7
20260901181613 87 196 2.0 6.0 0.00 0.00 0.00 57 1023.6
20260901181047 85 306 2.0 6.0 0.00 0.00 0.00 61 1023.8
20260901181036 87 306 2.0 5.0 0.00 0.00 0.00 59 1023.8
20260901181007 86 340 2.0 5.0 0.00 0.00 0.00 61 1023.9
20260901180945 86 318 2.0 5.0 0.00 0.00 0.00 58 1023.9
20260901180923 86 312 2.0 5.0 0.00 0.00 0.00 59 1023.9
20260901180855 86 319 2.0 5.0 0.00 0.00 0.00 61 1023.8
20260901180548 86 250 2.0 5.0 0.00 0.00 0.00 61 1023.9
20260901180330 85 306 2.0 6.0 0.00 0.00 0.00 61 1023.8
20260901180222 85 281 2.0 6.0 0.00 0.00 0.00 61 1023.9
20260901180128 86 283 2.0 6.0 0.00 0.00 0.00 62 1023.8
20260901180027 86 288 2.0 6.0 0.00 0.00 0.00 62 1024.0
20260901175924 86 209 2.0 6.0 0.00 0.00 0.00 61 1024.0
20260901175826 86 209 2.0 6.0 0.00 0.00 0.00 62 1024.0
20260901175801 85 190 2.0 5.0 0.00 0.00 0.00 62 1023.9
20260901175723 86 209 2.0 6.0 0.00 0.00 0.00 61 1023.9
20260901175704 85 190 2.0 5.0 0.00 0.00 0.00 62 1023.9
20260901175631 86 0 2.0 6.0 0.00 0.00 0.00 61 1023.9
20260901175611 86 0 2.0 6.0 0.00 0.00 0.00 63 1023.9
20260901175327 85 190 3.0 5.0 0.00 0.00 0.00 62 1023.9
20260901175218 85 190 3.0 5.0 0.00 0.00 0.00 62 1023.9
20260901175142 85 317 3.0 7.0 0.00 0.00 0.00 61 1024.0
20260901175118 85 190 3.0 5.0 0.00 0.00 0.00 62 1023.9
20260901175107 85 317 3.0 7.0 0.00 0.00 0.00 61 1024.0
20260901175043 85 329 3.0 5.0 0.00 0.00 0.00 62 1024.0
20260901174933 85 330 3.0 5.0 0.00 0.00 0.00 62 1024.0
20260901174900 85 316 3.0 7.0 0.00 0.00 0.00 62 1024.0
20260901174611 85 304 3.0 7.0 0.00 0.00 0.00 61 1024.0
20260901174513 85 333 3.0 7.0 0.00 0.00 0.00 62 1024.1
20260901174410 85 34 3.0 7.0 0.00 0.00 0.00 64 1024.0
20260901174357 85 0 3.0 7.0 0.00 0.00 0.00 63 1024.0
20260901174343 85 36 3.0 7.0 0.00 0.00 0.00 64 1024.0
20260901174148 85 317 3.0 7.0 0.00 0.00 0.00 63 1024.1
20260901174119 85 0 3.0 7.0 0.00 0.00 0.00 63 1024.1
20260901174100 85 301 3.0 7.0 0.00 0.00 0.00 63 1024.1
20260901173808 85 315 3.0 7.0 0.00 0.00 0.00 62 1024.1
20260901173709 85 329 3.0 7.0 0.00 0.00 0.00 63 1024.1
20260901173637 85 0 3.0 7.0 0.00 0.00 0.00 62 1024.1
20260901173623 85 334 3.0 7.0 0.00 0.00 0.00 63 1024.0
20260901173410 85 317 2.0 7.0 0.00 0.00 0.00 62 1024.2
20260901173314 85 296 2.0 5.0 0.00 0.00 0.00 61 1024.2
20260901173208 85 333 3.0 5.0 0.00 0.00 0.00 61 1024.2
20260901173107 85 207 2.0 6.0 0.00 0.00 0.00 60 1024.2
20260901173014 85 195 2.0 6.0 0.00 0.00 0.00 61 1024.2
20260901172911 85 295 2.0 6.0 0.00 0.00 0.00 60 1024.3
20260901172815 86 295 2.0 6.0 0.00 0.00 0.00 61 1024.2
20260901172718 86 337 2.0 6.0 0.00 0.00 0.00 60 1024.3
20260901172636 87 9 2.0 6.0 0.00 0.00 0.00 60 1024.3
20260901172617 86 300 2.0 6.0 0.00 0.00 0.00 60 1024.2
20260901172525 87 9 2.0 6.0 0.00 0.00 0.00 60 1024.3
20260901172410 87 9 2.0 6.0 0.00 0.00 0.00 59 1024.2
20260901172319 87 9 1.0 6.0 0.00 0.00 0.00 59 1024.2
20260901172207 87 349 1.0 6.0 0.00 0.00 0.00 58 1024.3
20260901172110 87 119 1.0 3.0 0.00 0.00 0.00 58 1024.2
20260901172041 87 117 2.0 7.0 0.00 0.00 0.00 58 1024.3
20260901172030 87 120 2.0 7.0 0.00 0.00 0.00 58 1024.3
20260901171808 87 192 2.0 7.0 0.00 0.00 0.00 59 1024.3
20260901171753 87 69 2.0 7.0 0.00 0.00 0.00 59 1024.3
20260901171719 87 69 2.0 7.0 0.00 0.00 0.00 59 1024.3
20260901171607 87 69 3.0 7.0 0.00 0.00 0.00 58 1024.3
20260901171510 87 111 3.0 7.0 0.00 0.00 0.00 60 1024.3
20260901171441 87 126 3.0 7.0 0.00 0.00 0.00 58 1024.3
20260901171416 87 111 3.0 7.0 0.00 0.00 0.00 58 1024.3
20260901171400 87 121 3.0 7.0 0.00 0.00 0.00 58 1024.3
20260901171131 87 151 3.0 7.0 0.00 0.00 0.00 58 1024.4
20260901171007 87 170 3.0 7.0 0.00 0.00 0.00 58 1024.4
20260901170950 87 223 3.0 8.0 0.00 0.00 0.00 60 1024.4
20260901170916 87 223 3.0 7.0 0.00 0.00 0.00 59 1024.3
20260901170845 87 225 3.0 8.0 0.00 0.00 0.00 58 1024.4
20260901170820 87 211 3.0 7.0 0.00 0.00 0.00 58 1024.4
20260901170749 87 219 3.0 7.0 0.00 0.00 0.00 58 1024.4
20260901170704 87 223 3.0 8.0 0.00 0.00 0.00 60 1024.4
20260901170404 87 241 3.0 8.0 0.00 0.00 0.00 59 1024.4
20260901170305 87 243 3.0 8.0 0.00 0.00 0.00 59 1024.4
20260901170214 87 202 3.0 8.0 0.00 0.00 0.00 59 1024.4
20260901170111 87 200 3.0 8.0 0.00 0.00 0.00 59 1024.4
20260901170012 87 171 3.0 8.0 0.00 0.00 0.00 59 1024.5
20260901170000 87 254 2.0 7.0 0.00 0.00 0.00 61 1024.6
20260901165955 87 231 2.0 8.0 0.00 0.00 0.00 61 1024.6
20260901165928 87 315 3.0 8.0 0.00 0.00 0.00 60 1024.5
20260901165910 87 230 2.0 8.0 0.00 0.00 0.00 60 1024.6
20260901165809 87 231 2.0 8.0 0.00 0.00 0.00 61 1024.6
20260901165615 87 254 2.0 7.0 0.00 0.00 0.00 61 1024.6
20260901165503 87 288 2.0 7.0 0.00 0.00 0.00 60 1024.6
20260901165412 87 252 2.0 7.0 0.00 0.00 0.00 61 1024.6
20260901165307 87 190 2.0 6.0 0.00 0.00 0.00 61 1024.5
20260901165159 87 246 2.0 5.0 0.00 0.00 0.00 62 1024.6
20260901165143 87 186 2.0 5.0 0.00 0.00 0.00 62 1024.6
20260901165128 87 246 1.0 5.0 0.00 0.00 0.00 61 1024.6
20260901164855 87 186 2.0 5.0 0.00 0.00 0.00 61 1024.6
20260901164756 87 186 2.0 8.0 0.00 0.00 0.00 61 1024.6
20260901164658 87 233 3.0 8.0 0.00 0.00 0.00 61 1024.6
20260901164556 87 240 3.0 8.0 0.00 0.00 0.00 61 1024.6
20260901164456 86 245 3.0 8.0 0.00 0.00 0.00 62 1024.7
20260901164356 86 292 3.0 8.0 0.00 0.00 0.00 61 1024.7
20260901164256 86 298 2.0 8.0 0.00 0.00 0.00 61 1024.7
20260901164157 86 317 2.0 8.0 0.00 0.00 0.00 62 1024.7
20260901164057 86 317 2.0 8.0 0.00 0.00 0.00 60 1024.7
20260901163956 86 217 2.0 8.0 0.00 0.00 0.00 59 1024.7
20260901163901 86 238 2.0 8.0 0.00 0.00 0.00 59 1024.7
20260901163758 86 213 2.0 8.0 0.00 0.00 0.00 59 1024.7
20260901163657 86 231 2.0 7.0 0.00 0.00 0.00 60 1024.8
20260901163556 86 193 2.0 9.0 0.00 0.00 0.00 62 1024.8
20260901163457 86 257 2.0 9.0 0.00 0.00 0.00 61 1024.8
20260901163355 86 255 2.0 9.0 0.00 0.00 0.00 61 1024.8
20260901163255 86 255 2.0 9.0 0.00 0.00 0.00 62 1024.8
20260901163155 86 255 2.0 9.0 0.00 0.00 0.00 63 1024.8
20260901163056 86 255 3.0 9.0 0.00 0.00 0.00 61 1024.8
20260901163036 86 269 3.0 9.0 0.00 0.00 0.00 62 1024.8
20260901163021 86 269 3.0 9.0 0.00 0.00 0.00 62 1024.8
20260901162757 86 309 2.0 9.0 0.00 0.00 0.00 62 1024.8
20260901162656 86 215 2.0 9.0 0.00 0.00 0.00 62 1024.9
20260901162555 86 355 2.0 8.0 0.00 0.00 0.00 62 1024.9
20260901162457 86 215 2.0 8.0 0.00 0.00 0.00 63 1024.9
20260901162354 85 198 2.0 8.0 0.00 0.00 0.00 64 1024.9
20260901162256 85 196 2.0 8.0 0.00 0.00 0.00 63 1024.9
20260901162153 85 184 2.0 8.0 0.00 0.00 0.00 65 1024.9
20260901162055 85 181 2.0 8.0 0.00 0.00 0.00 65 1024.9
20260901161954 85 213 3.0 8.0 0.00 0.00 0.00 65 1024.9
20260901161851 85 205 3.0 8.0 0.00 0.00 0.00 64 1024.9
20260901161753 85 248 3.0 8.0 0.00 0.00 0.00 63 1024.9
20260901161651 85 242 3.0 8.0 0.00 0.00 0.00 64 1024.9
20260901161612 85 217 3.0 8.0 0.00 0.00 0.00 64 1024.9
20260901161606 85 216 3.0 8.0 0.00 0.00 0.00 63 1024.9
20260901161556 85 209 3.0 8.0 0.00 0.00 0.00 64 1024.9
20260901161528 85 206 3.0 8.0 0.00 0.00 0.00 63 1025.1
20260901161140 85 192 2.0 8.0 0.00 0.00 0.00 64 1024.9
20260901161039 85 192 2.0 6.0 0.00 0.00 0.00 66 1024.9
20260901161015 85 190 2.0 6.0 0.00 0.00 0.00 66 1024.9
20260901161009 85 129 2.0 6.0 0.00 0.00 0.00 67 1024.9
20260901160953 85 188 2.0 6.0 0.00 0.00 0.00 65 1025.1
20260901160926 85 184 2.0 6.0 0.00 0.00 0.00 65 1024.9
20260901160758 85 256 2.0 6.0 0.00 0.00 0.00 66 1024.9
20260901160738 85 190 2.0 6.0 0.00 0.00 0.00 66 1024.9
20260901160452 85 163 2.0 6.0 0.00 0.00 0.00 66 1024.9
20260901160226 85 212 2.0 6.0 0.00 0.00 0.00 65 1024.9
20260901160128 85 212 2.0 6.0 0.00 0.00 0.00 67 1025.1
20260901160025 85 212 3.0 6.0 0.00 0.00 0.00 68 1025.1
20260901155927 85 299 2.0 6.0 0.00 0.00 0.00 69 1025.1
20260901155815 85 298 3.0 6.0 0.00 0.00 0.00 68 1024.9
20260901155753 84 304 3.0 7.0 0.00 0.00 0.00 67 1024.9
20260901155743 84 278 3.0 7.0 0.00 0.00 0.00 67 1024.9
20260901155514 84 245 3.0 9.0 0.00 0.00 0.00 66 1025.1
20260901155412 84 185 3.0 9.0 0.00 0.00 0.00 67 1025.1
20260901155307 84 182 3.0 9.0 0.00 0.00 0.00 69 1025.1
20260901155207 84 218 3.0 9.0 0.00 0.00 0.00 69 1025.1
20260901155109 84 225 2.0 9.0 0.00 0.00 0.00 71 1025.1
20260901155008 83 198 2.0 9.0 0.00 0.00 0.00 69 1025.1
20260901154906 83 286 2.0 9.0 0.00 0.00 0.00 69 1025.1
20260901154810 83 286 2.0 9.0 0.00 0.00 0.00 69 1025.1
20260901154726 83 199 2.0 9.0 0.00 0.00 0.00 68 1025.1
20260901154705 83 190 2.0 9.0 0.00 0.00 0.00 69 1025.1
20260901154640 83 213 2.0 6.0 0.00 0.00 0.00 68 1025.1
20260901154631 83 199 2.0 9.0 0.00 0.00 0.00 68 1025.1
20260901154401 83 200 2.0 6.0 0.00 0.00 0.00 70 1025.2
20260901154334 83 225 2.0 6.0 0.00 0.00 0.00 70 1025.2
20260901154324 83 302 2.0 6.0 0.00 0.00 0.00 70 1025.2
20260901154134 83 277 2.0 6.0 0.00 0.00 0.00 70 1025.1
20260901154123 83 292 2.0 6.0 0.00 0.00 0.00 70 1025.1
20260901153859 83 277 2.0 6.0 0.00 0.00 0.00 69 1025.2
20260901153758 83 220 2.0 6.0 0.00 0.00 0.00 71 1025.1
20260901153723 82 214 2.0 6.0 0.00 0.00 0.00 71 1025.1
20260901153717 82 214 2.0 6.0 0.00 0.00 0.00 70 1025.1
20260901153706 83 252 2.0 5.0 0.00 0.00 0.00 71 1025.1
20260901153639 83 247 2.0 6.0 0.00 0.00 0.00 70 1025.1
20260901153300 82 213 2.0 6.0 0.00 0.00 0.00 70 1025.1
20260901153153 82 5 2.0 6.0 0.00 0.00 0.00 70 1025.1
20260901153055 82 5 2.0 6.0 0.00 0.00 0.00 71 1025.1
20260901153034 82 226 2.0 6.0 0.00 0.00 0.00 73 1025.1
20260901153020 82 5 2.0 6.0 0.00 0.00 0.00 71 1025.1
20260901152824 82 319 2.0 6.0 0.00 0.00 0.00 72 1025.1
20260901152812 82 319 2.0 6.0 0.00 0.00 0.00 73 1025.1
20260901152547 82 289 2.0 5.0 0.00 0.00 0.00 71 1025.1
20260901152447 82 296 2.0 5.0 0.00 0.00 0.00 70 1025.1
20260901152412 82 21 2.0 5.0 0.00 0.00 0.00 70 1025.1
20260901152404 82 21 2.0 5.0 0.00 0.00 0.00 71 1024.9
20260901152143 82 33 2.0 5.0 0.00 0.00 0.00 69 1025.2
20260901152122 82 250 2.0 5.0 0.00 0.00 0.00 71 1025.1
20260901152117 82 315 2.0 5.0 0.00 0.00 0.00 71 1025.2
20260901152102 82 60 2.0 5.0 0.00 0.00 0.00 69 1025.2
20260901152045 82 15 2.0 5.0 0.00 0.00 0.00 70 1025.2
20260901151803 82 308 2.0 5.0 0.00 0.00 0.00 71 1025.1
20260901151529 82 250 2.0 5.0 0.00 0.00 0.00 70 1025.2
20260901151433 82 251 2.0 4.0 0.00 0.00 0.00 70 1025.2
20260901151336 82 340 2.0 4.0 0.00 0.00 0.00 70 1025.2
20260901151228 82 323 2.0 5.0 0.00 0.00 0.00 70 1025.1
20260901151129 82 322 2.0 5.0 0.00 0.00 0.00 70 1025.2
20260901151029 82 213 2.0 5.0 0.00 0.00 0.00 70 1025.2
20260901150928 82 213 2.0 5.0 0.00 0.00 0.00 71 1025.2
20260901150905 82 208 1.0 5.0 0.00 0.00 0.00 71 1025.2
20260901150853 82 209 2.0 5.0 0.00 0.00 0.00 70 1025.2
20260901150627 82 259 1.0 5.0 0.00 0.00 0.00 72 1025.1
20260901150528 82 335 1.0 5.0 0.00 0.00 0.00 72 1025.2
20260901150503 81 245 1.0 5.0 0.00 0.00 0.00 70 1025.1
20260901150450 81 249 1.0 5.0 0.00 0.00 0.00 72 1025.1
20260901150225 81 337 1.0 4.0 0.00 0.00 0.00 71 1025.2
20260901150124 81 337 1.0 4.0 0.00 0.00 0.00 72 1025.2
20260901150021 81 337 1.0 4.0 0.00 0.00 0.00 72 1025.1
20260901150000 81 337 1.0 4.0 0.00 0.00 0.00 71 1025.2
20260901145946 81 337 1.0 4.0 0.00 0.00 0.00 71 1025.1
20260901145721 81 323 1.0 4.0 0.00 0.00 0.00 71 1025.2
20260901145623 81 323 1.0 4.0 0.00 0.00 0.00 73 1025.1
20260901145525 81 309 1.0 3.0 0.00 0.00 0.00 73 1025.1
20260901145512 81 311 1.0 4.0 0.00 0.00 0.00 72 1025.1
20260901145455 81 310 2.0 4.0 0.00 0.00 0.00 73 1025.1
20260901145432 81 310 1.0 4.0 0.00 0.00 0.00 73 1025.2
20260901145410 81 310 1.0 4.0 0.00 0.00 0.00 72 1025.1
20260901145204 81 311 1.0 4.0 0.00 0.00 0.00 72 1025.1
20260901145138 81 310 1.0 4.0 0.00 0.00 0.00 72 1025.1
20260901145108 81 311 2.0 4.0 0.00 0.00 0.00 72 1025.1
20260901144944 81 311 1.0 4.0 0.00 0.00 0.00 72 1025.1
20260901144713 80 175 1.0 4.0 0.00 0.00 0.00 72 1025.1
20260901144610 80 261 1.0 4.0 0.00 0.00 0.00 71 1025.2
20260901144510 80 261 1.0 4.0 0.00 0.00 0.00 71 1025.1
20260901144408 80 237 1.0 4.0 0.00 0.00 0.00 72 1025.1
20260901144340 80 240 1.0 4.0 0.00 0.00 0.00 72 1025.2
20260901144324 80 240 1.0 4.0 0.00 0.00 0.00 71 1025.2
20260901144101 80 194 2.0 5.0 0.00 0.00 0.00 72 1025.1
20260901144000 80 223 2.0 5.0 0.00 0.00 0.00 73 1025.2
20260901143954 80 223 2.0 5.0 0.00 0.00 0.00 73 1025.1
20260901143932 80 223 2.0 5.0 0.00 0.00 0.00 74 1025.1
20260901143743 80 230 2.0 5.0 0.00 0.00 0.00 72 1025.1
20260901143729 80 223 2.0 5.0 0.00 0.00 0.00 72 1025.1
20260901143527 80 228 2.0 5.0 0.00 0.00 0.00 72 1024.9
20260901143511 80 229 2.0 5.0 0.00 0.00 0.00 72 1025.1
20260901143441 80 204 2.0 5.0 0.00 0.00 0.00 72 1024.9
20260901143316 80 217 2.0 5.0 0.00 0.00 0.00 72 1024.9
20260901143056 80 228 2.0 4.0 0.00 0.00 0.00 73 1025.1
20260901143041 80 280 1.0 4.0 0.00 0.00 0.00 73 1024.9
20260901143033 80 346 1.0 4.0 0.00 0.00 0.00 73 1025.1
20260901143027 80 249 1.0 4.0 0.00 0.00 0.00 73 1025.1
20260901143008 80 221 1.0 4.0 0.00 0.00 0.00 73 1024.9
20260901142939 80 237 1.0 4.0 0.00 0.00 0.00 73 1025.1